GFSFLT2_con_sbcape_012.txt.gz
CAPE
19 120 368 562 599 756 873 874 821 689 643 637 582 471 430 221 116 65 19 0 0 0 0 0 0 0 8 14 3 42 1 98
297 275 390 299 225 451 672 723 599 491 343 349 423 338 330 119 116 1 0 0 0 0 0 0 0 0 0 0 0 0 0 29
370 249 299 636 229 271 517 726 606 442 361 238 124 437 284 111 0 0 0 0 0 0 0 0 0 0 0 0 0 0 0 0
814 613 414 96 5 153 681 475 628 638 652 679 698 641 528 193 80 1 2 0 2 0 0 0 1 0 0 0 0 0 0 0
1091 1205 753 443 294 97 356 402 361 782 1294 555 871 465 919 468 360 192 44 10 20 0 10 0 4 0 0 0 0 0 0 0
1235 1108 876 651 551 534 642 433 198 435 381 616 561 324 392 139 33 0 0 0 1 10 0 2 3 0 0 0 0 0 0 0
898 1083 846 1053 331 921 758 640 380 349 238 252 193 200 232 122 34 6 0 0 0 0 0 0 0 0 0 0 0 0 0 0
1256 1247 738 408 552 378 633 242 336 243 71 4 73 75 109 96 35 35 10 2 5 0 0 0 0 0 0 0 0 0 0 0
1061 1102 498 330 370 325 257 13 8 35 32 25 25 59 62 113 56 52 55 80 54 23 10 0 0 0 0 0 0 0 0 0
253 650 440 293 409 66 79 90 61 52 82 48 11 18 17 66 56 77 115 115 86 60 39 21 0 0 0 0 0 0 0 0
632 998 261 114 207 87 77 52 43 14 0 14 0 1 2 6 2 43 73 35 36 30 1 26 7 0 0 0 0 0 0 0
755 760 56 88 164 108 13 2 5 20 6 0 0 0 0 0 0 1 27 0 0 0 0 0 0 0 0 0 0 0 0 0
76 52 17 4 56 5 0 0 1 1 1 0 0 0 0 0 0 0 0 0 0 0 0 0 0 0 0 0 0 0 40 0
4 0 0 0 0 0 0 0 0 0 4 0 0 0 0 0 0 0 0 0 0 0 0 0 0 0 0 0 0 0 0 0
0 0 0 0 0 0 0 0 0 0 0 0 0 0 0 0 0 0 0 0 0 0 0 0 0 0 0 0 0 0 0 0
0 0 0 0 0 0 0 0 0 0 0 0 0 0 0 0 0 0 0 0 0 0 0 0 0 0 0 0 0 0 2 0
0 0 0 0 0 0 0 0 0 0 0 0 0 0 0 0 0 0 0 0 0 6 8 13 4 0 0 0 0 0 0 0
0 0 0 0 0 0 0 0 0 0 0 0 0 0 0 0 0 0 1 14 21 8 6 0 0 0 0 3 3 9 10 0
0 0 0 1 3 1 1 0 0 0 0 0 0 0 0 0 0 5 13 13 14 7 13 8 2 0 0 0 0 1 0 1
23 6 0 0 6 3 2 0 0 0 0 0 0 0 0 0 2 7 2 0 0 3 6 2 4 13 8 13 3 0 0 5

GFSFLT2_con_sbcape_015.txt.gz
CAPE
63 176 312 364 426 447 462 584 592 592 619 649 554 476 391 276 116 10 0 0 0 0 0 0 0 0 0 0 0 0 0 0
0 0 3 23 110 265 282 307 264 184 303 410 283 296 237 235 94 33 0 0 0 0 0 0 0 0 0 0 0 0 0 0
0 0 0 0 0 138 276 352 230 115 206 237 121 99 123 46 34 18 1 0 0 0 0 0 0 0 0 0 0 0 0 1
0 0 85 0 0 17 40 235 178 109 109 116 48 92 110 47 3 0 5 3 3 0 0 0 0 0 0 0 0 0 0 0
68 0 0 0 2 0 15 57 138 146 159 25 2 88 26 0 10 8 0 3 0 1 0 0 0 0 0 0 0 0 0 0
87 0 0 0 0 0 0 0 2 26 20 0 0 0 0 0 0 0 0 0 0 0 0 0 0 0 0 0 0 0 0 0
213 17 42 0 19 0 0 7 0 5 0 0 0 0 0 0 0 0 0 0 0 0 0 0 0 0 0 0 0 0 0 0
156 58 144 10 22 37 5 0 0 0 0 0 0 0 0 0 0 0 0 0 0 0 0 0 0 0 0 0 0 0 0 0
144 63 191 1 20 17 8 0 0 0 0 0 0 0 0 0 0 0 0 0 0 0 0 0 0 0 0 0 0 0 0 0
375 461 148 17 0 1 0 0 0 0 0 0 0 0 0 0 0 0 0 0 0 0 0 0 0 0 0 0 0 0 0 0
0 26 76 9 0 0 0 0 0 0 0 0 0 0 0 0 0 0 0 0 0 0 0 0 0 0 0 0 0 0 0 0
138 47 11 0 0 0 0 0 0 0 0 0 0 0 0 0 0 0 0 0 0 0 0 0 0 0 0 0 0 0 0 0
0 0 0 0 0 0 0 0 0 0 0 0 0 0 0 0 0 0 0 0 0 0 0 0 0 0 0 0 0 0 0 0
0 0 0 0 0 0 0 0 0 0 0 0 0 0 0 0 0 0 0 0 0 0 0 0 0 0 0 0 0 0 0 0
0 0 0 0 0 0 0 0 0 0 0 0 0 0 0 0 0 0 0 0 0 0 0 0 0 0 0 0 0 0 0 0
0 0 0 0 0 0 0 0 0 0 0 0 0 0 0 0 0 0 0 0 0 0 0 0 0 0 0 0 0 0 0 0
0 0 0 0 0 0 0 0 0 0 0 0 0 0 0 0 0 0 0 0 0 0 0 0 0 0 0 0 0 0 0 0
0 0 0 0 0 0 0 0 0 0 0 0 0 0 0 0 0 0 0 0 0 0 0 0 0 0 2 0 2 25 32 6
0 0 0 0 0 0 0 0 0 0 0 0 0 0 0 0 0 0 0 0 0 0 0 2 5 2 4 1 0 0 0 2
0 0 0 0 0 0 0 0 0 0 0 0 0 0 0 0 0 0 0 0 0 0 0 0 1 0 0 0 0 0 0 2

GFSFLT2_con_sbcape_018.txt.gz
CAPE
199 330 444 454 425 400 435 587 660 721 734 625 527 378 299 201 44 0 0 0 0 0 0 0 0 0 0 0 0 0 0 0
0 23 39 63 150 230 276 292 286 375 372 271 217 205 190 162 64 13 0 0 0 0 0 0 0 0 0 0 0 0 0 0
0 0 0 0 17 161 273 301 210 172 219 225 100 62 44 9 17 0 0 0 0 0 2 0 0 0 0 0 0 0 0 0
0 0 0 0 1 72 26 84 77 53 89 62 24 20 23 24 12 82 60 8 14 25 34 20 5 0 0 0 0 0 0 0
0 0 0 0 0 0 0 28 71 47 105 86 14 15 24 14 0 0 0 0 0 0 0 0 0 0 0 0 0 0 0 0
0 0 0 0 0 0 0 0 40 89 7 0 0 0 0 0 0 0 0 0 0 0 0 0 0 0 0 0 0 0 0 0
0 0 0 0 0 0 0 0 4 0 0 0 0 0 0 0 0 0 0 0 0 0 0 0 0 0 0 0 0 0 0 0
0 0 0 0 0 0 0 0 0 0 0 0 0 0 0 0 0 0 0 0 0 0 0 0 0 0 0 0 0 0 0 0
32 0 0 0 0 0 0 0 0 0 0 0 0 0 0 0 0 0 0 0 0 0 0 0 0 0 0 0 0 0 0 0
49 172 7 7 0 0 0 0 0 0 0 0 0 0 0 0 0 0 0 0 0 0 0 0 0 0 0 0 0 0 0 0
40 9 28 18 2 0 0 0 0 0 0 0 0 0 0 0 0 0 0 0 0 0 0 0 0 0 0 0 0 0 0 0
1 8 0 0 0 0 0 0 0 0 0 0 0 0 0 0 0 0 0 0 0 0 0 0 0 0 0 0 0 0 0 0
0 0 0 0 0 0 0 0 0 0 0 0 0 0 0 0 0 0 0 0 0 0 0 0 0 0 0 0 0 0 0 0
0 0 0 0 0 0 0 0 0 0 0 0 0 0 0 0 0 0 0 0 0 0 0 0 0 0 0 0 0 0 0 0
0 0 0 0 0 0 0 0 0 0 0 0 0 0 0 0 0 0 0 0 0 0 0 0 0 0 0 0 7 0 0 0
0 0 0 0 0 0 0 0 0 0 0 0 0 0 0 0 0 0 0 0 0 0 0 0 0 0 0 5 2 2 3 0
0 0 0 0 0 0 0 0 0 0 0 0 0 0 0 0 0 0 0 0 0 0 0 0 0 0 9 10 0 0 2 3
0 0 0 0 0 0 0 0 0 0 0 0 0 0 0 0 0 0 0 0 0 0 0 0 0 0 0 4 8 12 8 8
0 0 0 0 0 0 0 0 0 0 0 0 0 0 0 0 0 0 0 0 0 0 0 0 0 0 0 0 0 0 0 1
0 0 0 0 0 0 0 0 0 0 0 0 0 0 0 0 0 0 0 0 0 0 0 0 6 0 0 0 1 3 6 34

GFSFLT2_con_sbcape_021.txt.gz
CAPE
329 490 597 590 512 488 486 562 608 640 698 706 557 413 249 164 31 0 0 0 0 0 0 0 0 0 0 0 0 0 0 0
25 65 138 99 151 233 289 349 354 445 475 344 205 180 152 128 35 13 0 0 0 9 11 5 0 0 0 0 0 0 0 0
0 0 0 0 0 56 194 256 226 264 244 147 53 17 18 22 66 27 40 26 30 45 88 42 0 0 0 0 0 0 0 0
0 0 0 0 2 25 0 64 10 2 18 24 9 0 0 0 8 93 164 111 138 86 33 30 0 0 0 0 0 0 0 0
0 0 0 0 0 0 0 2 0 0 25 14 5 7 0 0 0 0 0 0 0 0 0 0 0 0 0 0 0 0 0 0
0 0 0 0 0 0 0 10 2 21 34 0 0 0 0 0 0 0 0 0 0 0 0 0 0 0 0 0 0 0 0 0
0 0 0 0 0 0 0 7 49 72 1 0 0 0 0 0 0 0 0 0 0 0 0 0 0 0 0 0 0 0 0 0
0 0 0 0 0 0 0 0 2 0 0 0 0 0 0 0 0 0 0 0 0 0 0 0 0 0 0 0 0 0 0 0
0 0 0 0 0 0 0 0 0 0 0 0 0 0 0 0 0 0 0 0 0 0 0 0 0 0 0 0 0 0 0 0
0 0 0 0 0 0 0 0 0 0 0 0 0 0 0 0 0 0 0 0 0 0 0 0 0 0 0 0 0 0 0 0
0 0 0 0 0 0 0 0 0 0 0 0 0 0 0 0 0 0 0 0 0 0 0 0 0 0 0 0 0 0 0 0
0 0 0 0 0 0 0 0 0 0 0 0 0 0 0 0 0 0 0 0 0 0 0 0 0 0 0 0 0 0 0 0
0 0 0 0 0 0 0 0 0 0 0 0 0 0 0 0 0 0 0 0 0 0 0 0 0 0 0 0 0 0 0 0
0 0 0 0 0 0 0 0 0 0 0 0 0 0 0 0 0 0 0 0 0 0 0 0 0 0 0 0 0 0 0 0
0 0 0 0 0 0 0 0 0 0 0 0 0 0 0 0 0 0 0 0 0 0 0 0 0 0 0 0 0 0 0 0
0 0 0 0 0 0 0 0 0 0 0 0 0 0 0 0 0 0 0 0 0 0 0 0 0 0 0 0 0 2 1 2
0 0 0 0 0 0 0 0 0 0 0 0 0 0 0 0 0 0 0 0 0 0 0 0 0 0 0 0 0 0 0 1
0 0 0 0 0 0 0 0 0 0 0 0 0 0 0 0 0 0 0 0 0 0 0 0 0 0 0 0 6 19 22 41
0 0 0 0 0 0 0 0 0 0 0 0 0 0 0 0 0 0 0 0 0 0 0 0 0 0 0 0 0 0 5 12
0 0 0 0 0 0 0 0 0 0 0 0 0 0 0 0 0 0 0 0 0 0 0 0 0 0 0 0 0 0 5 43

GFSFLT2_con_sbcape_024.txt.gz
CAPE
591 654 726 692 637 552 487 530 588 654 679 590 531 298 136 69 21 11 2 20 86 98 112 117 75 30 8 0 0 0 0 0
264 305 351 235 247 292 321 390 411 446 540 422 254 125 66 56 0 8 101 126 152 146 195 165 104 49 15 0 0 0 0 0
0 10 0 0 0 120 313 343 339 342 345 214 50 0 0 0 6 76 156 129 154 180 86 57 0 0 0 0 0 0 0 0
0 0 0 0 0 7 0 49 59 62 63 74 0 0 0 0 0 8 2 0 0 0 0 0 0 0 0 0 0 0 0 0
0 0 0 0 0 0 0 0 1 0 4 1 0 0 0 0 0 0 0 0 0 0 0 0 0 0 0 0 0 0 0 0
0 0 0 0 0 0 0 0 1 9 33 35 0 0 0 0 0 0 0 0 0 0 0 0 0 0 0 0 0 0 0 0
0 0 0 0 0 0 0 0 16 40 31 0 0 0 0 0 0 0 0 0 0 0 0 0 0 0 0 0 0 0 0 0
0 0 0 0 0 0 0 0 1 4 0 0 0 0 0 0 0 0 0 0 0 0 0 0 0 0 0 0 0 0 0 0
0 0 0 0 0 0 0 0 0 0 0 0 0 0 0 0 0 0 0 0 0 0 0 0 0 0 0 0 0 0 0 0
0 0 0 0 0 0 0 0 0 0 0 0 0 0 0 0 0 0 0 0 0 0 0 0 0 0 0 0 0 0 0 0
0 0 0 0 0 0 0 0 0 0 0 0 0 0 0 0 0 0 0 0 0 0 0 0 0 0 0 0 0 0 0 0
0 0 0 0 0 0 0 0 0 0 0 0 0 0 0 0 0 0 0 0 0 0 0 0 0 0 0 0 0 0 0 0
0 0 0 0 0 0 0 0 0 0 0 0 0 0 0 0 0 0 0 0 0 0 0 0 0 0 0 0 0 0 0 0
0 0 0 0 0 0 0 0 0 0 0 0 0 0 0 0 0 0 0 0 0 0 0 0 0 0 0 0 0 0 0 0
0 0 0 0 0 0 0 0 0 0 0 0 0 0 0 0 0 0 0 0 0 0 0 0 0 0 0 0 0 0 0 0
0 0 0 0 0 0 0 0 0 0 0 0 0 0 0 0 0 0 0 0 0 0 0 0 0 0 0 0 0 0 13 7
0 0 0 0 0 0 0 0 0 0 0 0 0 0 0 0 0 0 0 0 0 0 0 0 0 0 0 0 0 0 0 30
0 0 0 0 0 0 0 0 0 0 0 0 0 0 0 0 0 0 0 0 0 0 0 0 0 0 0 0 0 6 4 9
0 0 0 0 0 0 0 0 0 0 0 0 0 0 0 0 0 0 0 0 0 0 0 0 0 0 0 0 0 0 0 6
0 0 0 0 0 0 0 0 0 0 0 0 0 0 0 0 0 0 0 0 0 0 0 0 0 0 0 0 0 0 0 0

GFSFLT2_con_sbcape_027.txt.gz
CAPE
910 933 885 810 766 654 552 598 656 706 666 583 406 233 150 150 129 87 71 131 94 73 42 54 0 0 0 0 0 0 0 0
636 974 875 844 635 483 395 440 466 527 512 358 148 92 126 180 1 112 163 142 154 68 16 0 0 0 0 0 0 0 0 0
608 780 658 490 434 381 327 407 367 373 362 169 56 169 158 102 36 148 7 0 11 0 0 0 0 0 0 0 0 0 0 0
437 355 271 165 97 335 344 302 306 380 351 363 237 252 221 194 12 0 0 0 0 0 0 0 0 0 0 0 0 0 0 0
81 97 55 36 64 193 117 230 279 289 328 318 311 220 275 116 0 0 0 0 0 0 0 0 0 0 0 0 0 0 0 0
0 0 0 0 2 38 80 229 290 376 412 395 355 169 5 0 0 0 0 0 0 0 0 0 0 0 0 0 0 0 0 0
0 0 0 0 1 34 84 241 333 367 339 69 0 0 0 0 0 0 0 0 0 0 0 0 0 0 0 0 0 0 0 0
0 0 0 0 0 1 55 148 87 80 0 2 0 0 0 0 0 0 0 0 0 0 0 0 0 0 0 0 0 0 0 0
5 0 0 0 0 0 0 0 0 0 0 0 0 0 0 0 0 0 0 0 0 0 0 0 0 0 0 0 0 0 0 0
48 0 0 0 0 0 0 0 0 0 0 0 0 0 0 0 0 0 0 0 0 0 0 0 0 0 0 0 0 0 0 0
1 8 8 0 0 0 0 0 0 0 0 0 0 0 0 0 0 0 0 0 0 0 0 0 0 0 0 0 0 0 0 0
26 39 2 0 0 0 0 0 0 0 0 0 0 0 0 0 0 0 0 0 0 0 0 0 0 0 0 0 0 0 0 0
67 0 0 0 0 0 0 0 0 0 0 0 0 0 0 0 0 0 0 0 0 0 0 0 0 0 0 0 0 0 0 0
61 6 0 0 0 0 0 0 0 0 0 0 0 0 0 0 0 0 0 0 0 0 0 0 0 0 0 0 0 0 0 0
26 0 0 0 0 0 0 0 0 0 0 0 0 0 0 0 0 0 0 0 0 0 0 0 0 0 9 1 0 0 5 0
0 0 0 0 0 0 0 0 0 0 0 0 0 0 0 0 0 0 0 0 0 0 0 0 0 0 0 4 5 11 10 6
0 0 0 0 0 0 0 0 0 0 0 0 0 0 0 0 0 0 0 0 0 0 0 0 0 0 3 5 5 14 27 42
0 0 0 0 0 0 0 0 0 0 0 0 0 0 0 0 0 0 0 0 0 0 1 0 3 8 12 13 5 8 11 28
0 0 0 0 0 0 0 0 0 0 0 0 0 0 0 0 0 0 0 0 2 4 4 20 27 4 4 2 15 18 26 13
0 0 0 0 0 0 0 0 0 0 0 0 0 0 0 0 0 0 0 9 3 11 20 37 50 9 3 1 1 1 3 2

GFSFLT2_con_sbcape_030.txt.gz
CAPE
1051 1001 979 931 849 635 577 647 703 718 661 492 319 233 247 116 78 114 104 101 88 4 0 0 0 0 0 0 0 0 0 0
1032 846 788 822 626 475 462 482 529 567 498 263 155 177 179 39 167 118 10 88 11 0 0 0 0 0 0 0 0 0 0 0
1006 727 692 560 319 384 287 420 430 410 357 171 110 246 191 104 41 4 0 0 0 0 0 0 0 0 0 0 0 0 0 0
885 738 627 344 43 173 185 129 389 509 493 545 526 653 543 241 14 0 0 0 0 0 0 0 0 0 0 0 0 0 0 0
617 579 347 63 74 134 162 528 684 817 833 847 919 851 873 324 16 6 0 0 0 0 0 0 0 0 0 0 0 0 0 0
141 155 208 153 85 185 466 635 739 778 925 1053 1049 986 610 94 10 0 0 0 0 0 0 0 0 0 0 0 0 0 0 0
25 70 97 217 346 537 688 844 938 1058 978 820 632 492 248 32 0 0 0 0 0 0 0 0 0 0 0 0 0 0 0 0
118 85 134 270 510 677 763 648 619 660 207 193 160 253 128 0 0 0 0 0 0 0 0 0 0 0 0 0 0 0 0 0
332 349 290 367 609 476 140 85 87 105 33 4 30 11 0 0 0 0 0 0 0 0 0 0 0 0 0 0 0 0 0 0
483 444 456 308 12 13 8 0 0 0 0 0 0 0 0 0 0 0 0 0 0 0 0 0 0 0 0 0 0 0 0 0
562 635 309 0 0 0 3 0 0 0 0 0 0 0 0 0 0 0 0 0 0 0 0 0 0 0 0 0 0 0 0 0
701 607 41 0 0 0 0 0 0 0 0 0 0 0 0 0 0 0 0 0 0 0 0 0 0 0 0 0 0 0 0 3
832 569 22 1 0 0 0 0 0 0 0 0 0 0 0 0 0 0 0 0 0 0 0 0 0 1 0 0 0 0 32 30
900 563 591 381 135 16 0 0 0 0 0 0 0 0 0 0 0 0 0 0 0 0 0 0 0 1 14 6 0 0 1 20
772 841 489 102 22 1 0 0 0 0 0 0 0 0 0 0 0 0 0 0 0 0 0 0 3 1 13 19 19 6 7 3
762 218 1 0 0 0 15 6 11 0 0 0 0 0 0 0 0 0 0 0 0 0 0 11 16 16 10 17 33 28 30 30
362 36 0 0 0 0 0 0 0 0 0 0 0 0 0 0 0 0 0 6 19 9 13 41 32 27 28 30 35 23 21 37
0 0 0 0 0 0 0 0 0 0 0 0 0 0 1 5 7 15 28 38 44 40 55 68 70 66 48 29 30 36 34 33
0 0 0 0 0 0 0 0 0 0 0 0 0 0 4 7 24 53 72 77 72 61 84 70 72 59 32 32 35 37 38 37
0 0 0 0 0 0 0 0 0 0 0 0 0 0 0 1 19 29 33 65 74 80 85 67 76 61 20 30 28 32 31 36

GFSFLT2_con_sbcape_033.txt.gz
CAPE
849 667 776 753 562 488 512 633 661 676 560 363 274 315 326 243 190 139 105 91 1 0 0 0 0 0 0 0 0 0 0 0
1028 858 625 625 486 397 457 504 514 505 323 198 150 116 68 196 172 10 81 22 0 0 0 0 0 0 0 0 0 0 0 0
751 506 548 469 256 301 381 547 502 346 143 124 44 121 138 164 0 14 5 0 0 0 0 0 0 0 0 0 0 0 0 0
666 585 487 269 0 48 36 154 189 325 304 287 578 434 555 125 0 0 0 0 0 0 0 0 0 0 0 0 0 0 0 0
516 534 344 25 87 88 165 403 534 597 660 773 844 560 695 592 84 48 49 0 3 0 0 0 0 0 0 0 0 0 0 0
291 202 116 118 25 127 359 522 709 797 846 887 773 1051 713 329 67 27 25 0 0 0 0 0 0 0 0 0 0 0 0 0
30 59 137 213 273 512 719 830 955 1052 1105 961 691 699 1174 329 93 21 15 0 1 1 0 0 0 0 0 0 0 0 0 0
51 90 220 454 664 783 969 992 894 897 803 735 350 276 525 253 86 3 3 0 0 0 0 0 0 0 0 0 0 0 0 0
191 322 472 725 714 294 101 42 37 118 308 259 174 255 73 165 67 0 0 0 0 0 0 0 0 0 0 0 0 0 0 0
422 397 636 552 165 1 17 45 78 101 48 15 0 0 0 0 0 0 0 0 0 0 0 0 0 0 0 0 0 0 0 0
591 672 527 194 0 2 12 30 0 2 0 0 0 0 0 0 0 0 0 0 0 0 0 0 0 0 0 0 0 0 0 0
784 746 407 58 26 4 0 0 0 0 0 0 0 0 0 0 0 0 0 0 0 0 0 0 0 0 0 0 0 0 0 1
953 955 537 237 240 59 27 11 0 0 0 0 0 0 0 0 0 0 0 0 0 0 0 0 0 0 0 0 0 0 4 9
892 771 597 442 464 182 50 7 3 1 0 0 0 0 0 0 0 0 0 0 0 0 0 0 0 1 0 0 0 0 0 0
793 721 633 639 312 68 51 63 28 0 0 0 0 0 0 0 0 0 0 0 0 0 4 3 4 5 9 5 4 4 5 1
1047 931 721 255 43 33 57 52 18 28 9 1 0 0 0 0 0 0 0 0 2 8 10 17 25 19 15 12 18 19 20 7
816 449 60 4 23 37 66 32 41 18 2 0 0 1 2 0 0 7 9 13 19 28 37 39 38 29 28 19 20 17 16 30
439 4 3 0 0 4 10 7 0 4 4 0 0 0 0 0 4 9 15 20 34 47 49 27 56 58 60 37 34 34 34 46
60 1 0 0 0 0 0 0 0 0 0 0 0 0 0 0 0 1 3 5 10 30 47 56 88 69 66 54 25 47 56 35
0 0 1 0 0 0 0 0 0 0 0 0 0 0 0 0 0 0 1 7 14 42 78 108 101 67 82 53 54 56 52 49

GFSFLT2_con_sbcape_036.txt.gz
CAPE
282 670 742 444 400 452 538 515 436 365 343 309 333 349 356 415 326 234 102 6 0 0 0 0 0 0 0 0 0 5 0 0
335 627 558 271 269 354 413 411 354 245 195 146 111 84 235 327 79 173 98 0 0 0 0 0 0 0 0 0 0 0 0 0
382 498 349 230 295 371 416 469 300 174 102 101 29 12 73 37 16 60 11 0 0 0 0 0 0 0 0 0 0 0 0 0
296 502 296 144 28 148 144 168 29 30 30 30 97 465 82 1 0 0 0 0 0 0 0 0 0 0 0 0 0 0 0 0
380 363 246 14 5 38 77 115 306 466 509 652 857 805 315 16 0 0 0 0 0 0 0 0 0 0 0 0 0 0 0 0
284 244 311 83 71 70 380 560 467 850 823 834 851 862 755 261 160 164 40 34 0 2 0 0 0 0 0 0 0 0 0 0
202 220 313 373 449 714 632 631 910 917 905 830 760 538 698 287 96 36 4 0 0 0 0 0 0 0 0 0 0 0 0 0
139 175 450 502 751 646 585 805 911 614 524 413 253 147 232 186 0 0 0 0 0 0 0 0 0 0 0 0 0 0 0 0
123 254 487 738 725 417 59 1 13 142 307 248 188 79 1 0 0 0 0 0 0 0 0 0 0 0 0 0 0 0 0 0
261 423 660 304 106 14 8 57 18 8 20 6 0 0 0 0 0 0 0 0 0 0 0 0 0 0 0 0 0 0 0 0
394 671 336 37 0 3 6 0 0 0 0 0 0 0 0 0 0 0 0 0 0 0 0 0 0 0 0 0 0 0 0 0
569 562 264 81 12 12 2 0 0 0 0 0 0 0 0 0 0 0 0 0 0 0 0 0 0 0 0 0 0 0 0 0
709 446 204 23 99 61 30 3 0 0 0 0 0 0 0 0 0 0 0 0 0 0 0 0 0 0 0 0 0 0 0 0
687 503 219 218 312 216 82 2 0 0 0 0 0 0 0 0 0 0 0 0 0 0 0 0 0 0 0 0 0 0 0 0
678 527 427 346 329 84 6 0 0 0 0 0 0 0 0 0 0 0 0 0 0 0 0 0 0 0 0 0 0 0 0 0
796 557 625 663 150 11 0 0 0 0 0 0 0 0 0 0 0 0 0 0 0 0 0 0 0 0 0 0 0 0 0 0
669 719 693 252 29 2 28 84 25 3 0 0 0 0 0 0 0 0 0 0 0 0 11 24 15 5 0 0 0 0 0 0
927 582 41 2 0 12 39 27 0 0 0 0 0 0 0 0 0 0 0 0 0 0 0 7 1 5 14 7 0 0 0 0
301 11 0 0 0 0 0 0 0 0 0 0 0 0 0 0 0 0 0 0 0 0 0 22 29 18 2 5 5 0 0 0
99 0 0 0 0 0 0 0 0 0 0 0 0 0 0 0 0 0 0 0 0 0 0 12 37 27 27 22 12 6 0 2

GFSFLT2_con_sbcape_039.txt.gz
CAPE
154 343 371 382 351 249 222 212 218 256 267 251 253 257 287 326 326 241 27 2 0 0 0 0 0 0 0 0 0 0 0 0
366 223 186 182 237 212 170 158 166 162 138 110 124 141 164 87 188 201 39 0 0 0 0 0 0 0 0 0 0 0 0 0
149 173 147 113 141 160 136 145 84 85 88 57 20 0 5 0 0 11 0 0 0 0 0 0 0 0 0 0 0 0 0 0
206 182 97 63 88 42 36 33 4 0 0 0 0 0 0 0 0 0 0 0 0 0 0 0 0 0 0 0 0 0 0 0
234 201 27 0 1 1 3 1 0 0 0 0 0 48 0 0 0 0 0 0 0 0 0 0 0 0 0 0 0 0 0 0
190 132 2 0 0 1 0 17 34 81 247 250 74 71 4 0 0 0 0 0 0 0 0 0 0 0 0 0 0 0 0 0
40 10 0 0 5 90 156 258 282 352 225 10 0 0 0 0 0 0 0 0 0 0 0 0 0 0 0 0 0 0 0 0
13 15 0 172 271 230 254 303 221 116 112 10 0 0 0 0 0 0 0 0 0 0 0 0 0 0 0 0 0 0 0 0
0 9 199 239 89 0 0 0 0 16 12 4 0 0 0 0 0 0 0 0 0 0 0 0 0 0 0 0 0 0 0 0
3 202 197 0 0 0 0 0 0 0 0 0 0 0 0 0 0 0 0 0 0 0 0 0 0 0 0 0 0 0 0 0
95 257 3 0 0 0 0 0 0 0 0 0 0 0 0 0 0 0 0 0 0 0 0 0 0 0 0 0 0 0 0 0
268 22 0 0 0 0 0 0 0 0 0 0 0 0 0 0 0 0 0 0 0 0 0 0 0 0 0 0 0 0 0 0
238 22 0 0 0 0 0 0 0 0 0 0 0 0 0 0 0 0 0 0 0 0 0 0 0 0 0 0 0 0 0 0
191 111 14 0 0 0 0 0 0 0 0 0 0 0 0 0 0 0 0 0 0 0 0 0 0 0 0 0 0 0 0 0
197 64 15 0 2 0 0 0 0 0 0 0 0 0 0 0 0 0 0 0 0 0 0 0 0 0 0 0 0 0 0 0
328 209 132 14 33 0 0 0 0 0 0 0 0 0 0 0 0 0 0 0 0 0 0 0 0 0 0 0 0 0 0 0
407 270 320 151 103 0 0 0 0 0 0 0 0 0 0 0 0 0 0 0 0 0 0 0 0 0 0 0 0 0 0 0
348 206 214 241 0 0 0 0 0 0 0 0 0 0 0 0 0 0 0 0 0 0 0 0 0 0 0 0 0 0 0 0
245 274 130 0 0 0 0 0 0 0 0 0 0 0 0 0 0 0 0 0 0 0 0 0 0 0 0 0 0 0 0 0
420 52 0 0 0 0 0 0 0 0 0 0 0 0 0 0 0 0 0 0 0 0 0 0 0 0 0 0 0 0 0 0

GFSFLT2_con_sbcape_042.txt.gz
CAPE
50 176 349 278 228 207 161 190 220 228 199 199 219 225 258 281 194 72 27 0 0 0 0 0 0 0 0 0 0 0 0 0
118 79 170 274 180 156 163 164 167 133 131 145 148 182 207 232 156 57 5 0 0 0 0 0 0 0 0 0 0 0 0 0
120 66 179 185 109 96 129 173 123 121 123 81 8 0 0 2 4 6 0 0 0 0 0 0 0 0 0 0 0 0 0 0
104 138 129 141 86 38 16 31 16 4 0 0 0 0 0 0 0 0 0 0 0 0 0 0 0 0 0 0 0 0 0 0
131 160 102 35 30 2 0 0 0 0 0 0 0 0 0 0 0 0 0 0 0 0 0 0 0 0 0 0 0 0 0 0
167 65 14 0 0 0 0 0 0 0 1 1 0 0 0 0 0 0 0 0 0 0 0 0 0 0 0 0 0 0 0 0
117 28 0 0 0 0 0 7 21 25 0 0 4 0 0 0 0 0 0 0 0 0 0 0 0 0 0 0 0 0 0 0
194 65 0 0 23 43 41 145 66 0 0 0 0 0 0 0 0 0 0 0 0 0 0 0 0 0 0 0 0 0 0 0
50 19 5 112 145 178 18 0 0 0 0 0 0 0 0 0 0 0 0 0 0 0 0 0 0 0 0 0 0 0 0 0
12 106 71 10 0 0 0 0 0 0 0 0 0 0 0 0 0 0 0 0 0 0 0 0 0 0 0 0 0 0 0 0
33 62 3 0 0 0 0 0 0 0 0 0 0 0 0 0 0 0 0 0 0 0 0 0 0 0 0 0 0 0 0 0
151 0 0 0 0 0 0 0 0 0 0 0 0 0 0 0 0 0 0 0 0 0 0 0 0 0 0 0 0 0 0 0
56 0 0 0 0 0 0 0 0 0 0 0 0 0 0 0 0 0 0 0 0 0 0 0 0 0 0 0 0 0 0 0
65 0 0 0 0 0 0 0 0 0 0 0 0 0 0 0 0 0 0 0 0 0 0 0 0 0 0 0 0 0 0 0
62 15 0 0 0 0 0 0 0 0 0 0 0 0 0 0 0 0 0 0 0 0 0 0 0 0 0 0 0 0 0 0
99 15 0 0 0 0 0 0 0 0 0 0 0 0 0 0 0 0 0 0 0 0 0 0 0 0 0 0 0 0 0 0
100 24 0 0 0 0 0 0 0 0 0 0 0 0 0 0 0 0 0 0 0 0 0 0 0 0 0 0 0 0 0 0
110 162 124 22 0 0 0 0 0 0 0 0 0 0 0 0 0 0 0 0 0 0 0 0 0 0 0 0 0 0 0 0
213 311 230 45 0 0 0 0 0 0 0 0 0 0 0 0 0 0 0 0 0 0 0 0 0 0 0 0 0 0 0 0
288 170 78 0 0 0 0 0 0 0 0 0 0 0 0 0 0 0 0 0 0 0 0 0 0 0 0 0 0 0 0 0

GFSFLT2_con_sbcape_045.txt.gz
CAPE
13 26 215 374 330 244 293 399 414 359 301 287 252 197 149 136 92 49 39 10 0 0 0 0 0 0 0 0 0 0 0 0
26 79 188 242 223 243 275 349 356 338 309 242 216 247 190 137 86 33 0 0 0 0 0 0 0 0 0 0 0 0 0 0
33 15 135 188 162 209 329 372 303 219 212 171 43 20 17 0 3 0 0 0 0 2 0 0 0 0 0 0 0 0 0 0
43 19 49 165 83 88 94 106 41 20 12 11 1 0 0 0 0 11 0 0 0 0 0 0 0 0 0 0 0 0 0 0
110 45 164 124 71 45 20 4 0 0 0 0 0 0 0 0 0 0 0 0 0 0 0 0 0 0 0 0 0 0 0 0
76 82 162 88 30 17 5 0 0 0 0 0 0 0 0 0 0 0 0 0 0 0 0 0 0 0 0 0 0 0 0 0
146 141 100 11 5 0 0 0 0 5 6 7 0 0 0 0 0 0 0 0 0 0 0 0 0 0 0 0 0 0 0 0
109 81 15 0 0 0 0 12 41 1 0 0 1 0 0 0 0 0 0 0 0 0 0 0 0 0 0 0 0 0 0 0
91 96 0 0 0 1 16 41 15 0 0 0 0 0 0 0 0 0 0 0 0 0 0 0 0 0 0 0 0 0 0 0
155 156 0 6 15 1 0 0 0 0 0 0 0 0 0 0 0 0 0 0 0 0 0 0 0 0 0 0 0 0 0 0
93 32 15 3 0 0 0 0 0 0 0 0 0 0 0 0 0 0 0 0 0 0 0 0 0 0 0 0 0 0 0 0
36 38 0 0 0 0 0 0 0 0 0 0 0 0 0 0 0 0 0 0 0 0 0 0 0 0 0 0 0 0 0 0
81 0 0 0 0 0 0 0 0 0 0 0 0 0 0 0 0 0 0 0 0 0 0 0 0 0 0 0 0 0 0 0
0 0 0 0 0 0 0 0 0 0 0 0 0 0 0 0 0 0 0 0 0 0 0 0 0 0 0 0 0 0 0 0
9 0 0 0 0 0 0 0 0 0 0 0 0 0 0 0 0 0 0 0 0 0 0 0 0 0 0 0 0 0 0 0
44 9 0 0 0 0 0 0 0 0 0 0 0 0 0 0 0 0 0 0 0 0 0 0 0 0 0 0 0 0 0 0
33 4 0 0 0 0 0 0 0 0 0 0 0 0 0 0 0 0 0 0 0 0 0 0 0 0 0 0 0 0 0 0
0 0 0 0 0 0 0 0 0 0 0 0 0 0 0 0 0 0 0 0 0 0 0 0 0 0 0 0 0 0 0 0
0 0 0 0 0 0 0 0 0 0 0 0 0 0 0 0 0 0 0 0 0 0 0 0 0 0 0 0 0 0 0 0
36 45 59 58 4 0 0 0 0 0 0 0 0 0 0 0 0 0 0 0 0 0 0 0 0 0 0 0 0 0 0 0

GFSFLT2_con_sbcape_048.txt.gz
CAPE
5 8 101 196 238 309 346 421 480 421 402 365 279 224 171 139 115 101 73 43 1 0 0 0 0 0 0 0 0 0 0 0
4 29 99 116 200 254 299 297 377 374 384 322 236 213 162 112 74 70 108 64 26 0 0 0 0 0 0 0 0 0 0 0
2 19 130 160 184 297 294 356 343 351 297 256 71 23 3 0 19 29 61 25 3 0 0 0 0 0 0 0 0 0 0 0
8 8 21 111 134 136 144 196 93 78 58 10 0 0 0 0 0 0 48 0 0 0 0 0 0 0 0 0 0 0 0 0
0 0 0 90 97 46 31 20 11 18 19 2 1 0 0 0 0 0 0 0 0 0 0 0 0 0 0 0 0 0 0 0
0 0 0 51 59 55 25 7 0 0 0 0 0 0 0 0 0 0 0 0 0 0 0 0 0 0 0 0 0 0 0 0
1 0 45 91 69 24 2 0 0 0 0 0 0 0 0 0 0 0 0 0 0 0 0 0 0 0 0 0 0 0 0 0
21 80 52 12 6 7 2 0 0 1 0 0 0 0 0 0 0 0 0 0 0 0 0 0 0 0 0 0 0 0 0 0
55 125 14 1 0 0 0 0 5 0 0 0 0 0 0 0 0 0 0 0 0 0 0 0 0 0 0 0 0 0 0 0
80 173 0 0 0 0 0 7 0 0 0 0 0 0 0 0 0 0 0 0 0 0 0 0 0 0 0 0 0 0 0 0
65 68 0 0 0 0 0 0 0 0 0 0 0 0 0 0 0 0 0 0 0 0 0 0 0 0 0 0 0 0 0 0
11 0 0 0 0 0 0 0 0 0 0 0 0 0 0 0 0 0 0 0 0 0 0 0 0 0 0 0 0 0 0 0
2 0 0 0 0 0 1 0 0 0 0 0 0 0 0 0 0 0 0 0 0 0 0 0 0 0 0 0 0 0 0 0
2 0 0 0 0 0 0 0 0 0 0 0 0 0 0 0 0 0 0 0 0 0 0 0 0 0 0 0 0 0 0 0
17 0 0 0 0 0 0 0 0 0 0 0 0 0 0 0 0 0 0 0 0 0 0 0 0 0 0 0 0 0 0 0
13 0 0 0 0 0 0 0 0 0 0 0 0 0 0 0 0 0 0 0 0 0 0 0 0 0 0 0 0 0 0 0
4 0 0 0 0 0 0 0 0 0 0 0 0 0 0 0 0 0 0 0 0 0 0 0 0 0 0 0 0 0 0 0
0 0 0 0 0 0 0 0 0 0 0 0 0 0 0 0 0 0 0 0 0 0 0 0 0 0 0 0 0 0 0 0
0 0 0 0 0 0 0 0 0 0 0 0 0 0 0 0 0 0 0 0 0 0 0 0 0 0 0 0 0 0 0 0
3 1 1 0 0 0 0 0 0 0 0 0 0 0 0 0 0 0 0 0 0 0 0 0 0 0 0 0 0 0 0 0

GFSFLT2_con_sbcape_051.txt.gz
CAPE
252 128 171 265 304 332 322 299 310 335 370 293 251 177 110 105 126 115 81 36 14 0 0 0 0 0 0 0 0 0 0 0
4 20 38 41 269 311 404 292 273 286 275 215 195 167 129 135 159 135 48 20 0 0 0 0 0 0 0 0 0 0 0 0
5 11 0 80 245 328 420 405 246 209 189 172 74 22 1 0 24 108 92 4 0 0 0 0 0 0 0 0 0 0 0 0
7 25 29 69 140 276 321 314 223 152 115 87 74 56 6 0 11 59 23 0 0 0 0 0 0 0 0 0 0 0 0 0
23 20 0 24 74 140 198 243 170 101 85 66 53 49 41 0 2 0 0 0 0 0 0 0 0 0 0 0 0 0 0 0
18 8 19 65 113 196 181 115 83 76 64 81 32 17 10 0 0 0 0 0 0 0 0 0 0 0 0 0 0 0 0 0
0 0 0 36 118 120 91 96 79 96 78 117 1 0 0 0 0 0 0 0 0 0 0 0 0 0 0 0 0 0 0 0
0 0 2 60 175 101 121 105 60 74 99 151 28 0 0 0 0 0 0 0 0 0 0 0 0 0 0 0 0 0 0 0
0 0 21 160 190 69 77 39 17 27 64 19 41 1 0 0 0 0 0 0 0 0 0 0 0 0 0 0 0 0 0 0
3 23 107 149 117 46 10 34 105 110 69 100 135 40 0 0 0 0 0 0 0 0 0 0 0 0 0 0 0 0 0 0
21 193 306 147 78 28 30 55 123 172 2 1 0 0 0 0 0 0 0 0 0 0 0 0 0 0 0 0 0 0 0 0
126 295 282 83 50 6 12 29 69 26 0 0 0 0 0 0 0 0 0 0 0 0 0 0 0 0 0 0 0 0 0 0
112 280 267 89 42 27 30 33 47 7 0 0 0 0 0 0 0 0 0 0 0 0 0 0 0 0 0 0 0 0 0 0
138 227 273 147 81 43 34 34 7 12 2 0 0 0 0 0 0 0 0 0 0 0 0 0 0 0 0 0 0 0 0 0
122 209 273 212 88 23 0 1 2 2 2 0 0 0 0 0 0 0 0 0 0 0 0 0 0 0 0 0 0 0 0 0
130 185 203 155 47 16 4 44 63 2 3 0 0 0 0 0 0 0 0 0 0 0 0 0 0 0 0 0 0 0 0 0
259 199 160 128 16 30 35 20 70 0 0 0 0 0 0 0 0 0 0 0 0 0 0 0 0 0 0 0 0 0 0 0
286 211 163 125 39 30 0 0 0 0 0 0 0 0 0 0 0 0 0 0 0 0 0 0 0 0 0 0 0 0 0 0
223 236 239 73 4 3 0 1 0 0 0 0 0 0 0 0 0 0 0 0 0 0 0 0 0 0 0 0 0 0 0 0
245 269 327 155 55 11 0 0 1 0 0 0 0 0 0 0 0 0 0 0 0 0 0 0 0 0 0 0 0 0 0 0

GFSFLT2_con_sbcape_054.txt.gz
CAPE
20 63 312 228 237 262 235 318 303 279 265 262 241 228 214 204 185 130 73 67 108 14 0 0 0 0 0 0 0 0 0 0
5 7 199 238 242 234 191 322 315 284 264 231 207 198 203 188 142 139 114 8 0 0 0 0 0 0 0 0 0 0 0 0
0 0 0 9 57 219 308 312 309 247 191 133 76 40 31 16 78 133 100 32 0 0 0 0 0 0 0 0 0 0 0 0
1 0 0 20 99 62 290 304 229 154 109 65 25 45 23 45 76 80 14 0 0 0 0 0 0 0 0 0 0 0 0 0
14 12 46 65 41 8 123 350 232 163 185 68 50 39 32 19 7 0 0 0 0 0 0 0 0 0 0 0 0 0 0 0
8 16 20 2 92 11 29 132 244 173 126 128 96 59 19 27 0 0 0 0 0 0 0 0 0 0 0 0 0 0 0 0
11 38 41 88 95 39 147 240 172 101 133 110 84 76 23 0 5 0 0 0 0 0 0 0 0 0 0 0 0 0 0 0
0 5 1 14 73 64 146 224 144 193 132 140 98 64 77 15 0 0 0 0 0 0 0 0 0 0 0 0 0 0 0 0
1 8 89 128 180 164 201 112 74 64 163 346 164 73 68 23 0 0 0 0 0 0 0 0 0 0 0 0 0 0 0 0
15 3 80 137 249 237 129 67 65 67 296 431 381 225 52 43 0 0 0 0 0 0 0 0 0 0 0 0 0 0 0 0
5 6 36 137 355 362 55 167 103 68 281 397 384 521 317 82 18 2 0 0 0 0 0 0 0 0 0 0 0 0 0 0
0 57 157 338 428 474 199 66 124 246 490 442 367 478 479 226 73 6 0 0 0 0 0 0 0 0 0 0 0 0 0 0
149 194 298 569 507 385 197 77 153 312 492 496 226 272 253 231 74 0 0 0 0 0 0 0 0 0 0 0 0 0 0 0
221 254 454 641 496 349 128 46 117 260 397 142 92 51 18 23 3 0 0 0 0 0 0 0 0 0 0 0 3 0 0 0
392 514 675 842 627 481 209 159 211 270 269 210 8 3 0 0 0 0 0 0 0 0 0 0 0 0 0 0 0 2 0 0
301 347 471 780 821 516 219 112 135 245 296 94 7 1 0 0 0 0 0 0 0 0 0 0 0 0 0 0 0 0 0 0
475 468 501 651 823 836 523 211 127 416 438 189 5 0 2 0 0 0 0 0 0 0 0 0 0 0 0 0 0 0 0 0
1063 722 580 690 770 884 943 688 552 703 460 274 115 6 3 0 0 0 0 0 0 0 0 0 0 0 0 0 0 0 0 0
1457 1181 942 844 944 1008 1063 1017 881 731 519 296 75 6 0 0 0 0 0 0 0 0 0 0 0 0 0 0 0 0 0 0
1562 1368 1271 1047 1133 1137 1073 862 885 667 412 201 94 1 0 2 0 0 0 0 0 0 0 0 0 0 0 0 0 0 0 0

GFSFLT2_con_sbcape_057.txt.gz
CAPE
92 102 226 173 136 145 185 340 394 438 369 323 257 203 220 294 300 303 254 173 63 3 0 0 0 0 0 0 0 0 0 1
67 45 104 107 150 122 197 236 269 271 235 203 220 212 200 183 160 222 255 160 41 0 0 0 0 0 0 0 0 0 0 0
87 61 42 128 154 187 169 318 333 205 191 169 91 73 42 45 131 128 113 78 23 0 0 0 0 0 0 0 0 0 0 0
2 15 18 44 11 54 103 206 269 152 135 200 98 115 116 83 114 138 64 15 1 0 0 0 0 0 0 0 0 0 0 0
0 0 0 12 11 29 66 118 203 134 238 216 287 260 227 123 31 2 0 0 0 0 0 0 0 0 0 0 0 0 0 0
3 16 16 1 0 0 32 127 202 208 229 325 366 251 303 185 37 2 0 0 0 0 0 0 0 0 0 0 0 0 0 0
9 4 14 8 0 12 12 70 60 54 166 285 263 204 325 221 184 24 9 0 0 0 0 0 0 0 0 0 0 0 0 0
20 10 28 33 33 68 68 226 213 195 234 301 430 407 390 245 166 38 2 0 0 0 0 0 0 0 0 0 0 0 0 0
4 2 41 42 34 53 130 266 240 203 187 475 312 256 305 200 77 59 8 0 0 0 0 0 0 0 0 0 0 0 0 0
8 6 16 37 25 45 179 238 219 62 181 271 447 213 304 146 106 48 10 3 0 0 0 0 0 0 0 0 0 0 0 0
4 7 51 71 152 148 216 288 152 160 149 366 551 422 204 167 88 92 95 8 0 0 0 2 0 0 0 0 0 0 0 0
6 17 64 204 200 223 99 102 223 106 64 341 536 591 692 298 186 216 80 0 0 0 0 0 0 0 0 0 0 0 0 0
23 41 231 70 102 107 89 13 45 58 162 433 700 529 609 755 537 423 52 0 0 0 0 0 0 0 0 0 6 0 0 0
3 4 19 76 46 38 58 75 8 119 245 506 583 490 484 525 624 433 62 0 0 0 0 0 0 0 0 1 6 6 0 0
48 158 182 207 249 191 133 77 68 70 196 393 475 255 23 17 57 159 44 22 0 0 0 0 0 0 0 0 5 2 0 0
270 280 313 384 492 406 334 135 63 64 228 306 392 12 0 0 0 3 171 86 1 0 0 0 0 10 0 0 0 0 0 0
514 515 593 630 688 572 517 366 171 154 266 394 361 116 11 0 0 2 99 5 0 0 0 2 0 0 0 0 0 0 0 5
955 572 542 553 646 856 968 870 502 267 324 751 457 211 106 63 24 0 0 0 0 0 13 2 0 0 0 0 0 0 3 8
1195 777 728 719 963 960 1035 1083 1126 867 708 1000 581 417 194 37 9 0 0 0 0 7 0 0 0 0 0 0 0 0 0 0
1376 1277 1208 970 991 1149 1218 1294 1329 1406 1025 1060 961 665 241 0 0 0 0 0 0 0 0 0 0 0 0 0 0 0 3 3

GFSFLT2_con_sbcape_060.txt.gz
CAPE
5 7 32 65 119 209 340 428 468 450 398 506 641 680 572 378 271 204 135 74 19 1 0 0 0 0 0 0 0 0 0 0
10 0 15 3 1 98 184 213 254 275 210 178 204 249 293 270 209 173 106 55 2 0 0 0 0 0 0 0 0 0 0 0
40 10 9 8 10 61 129 242 250 243 196 130 100 101 77 77 177 154 113 58 5 0 0 0 0 0 0 0 0 0 0 0
26 17 3 5 0 0 1 99 109 201 97 28 3 29 30 83 118 103 85 35 0 0 0 0 0 0 0 0 0 0 0 0
0 2 0 0 11 29 38 58 81 124 238 163 115 57 59 92 23 10 1 0 0 0 0 0 0 0 0 0 0 0 0 0
2 3 1 1 0 1 7 30 95 142 223 251 248 191 103 46 33 4 0 0 0 0 0 0 0 0 0 0 0 0 0 0
8 1 0 0 0 2 0 7 112 163 202 263 278 226 165 76 41 4 0 0 0 0 0 0 0 0 0 0 0 0 0 0
4 3 0 0 0 0 0 19 36 89 253 250 249 217 355 121 172 59 19 0 0 0 0 0 0 0 0 0 0 0 0 0
8 7 0 0 0 0 0 10 66 169 273 293 253 283 341 220 189 195 52 0 0 0 0 0 0 0 0 0 0 0 0 0
1 3 1 0 0 0 8 34 135 147 231 243 227 328 309 280 136 150 44 6 0 0 0 0 0 0 0 0 0 0 0 0
11 14 6 0 0 0 1 77 99 82 43 229 304 306 295 220 208 95 122 2 0 0 0 0 0 0 0 0 0 0 0 0
6 5 0 0 0 0 38 74 79 100 91 304 413 368 179 243 170 165 132 14 0 0 0 0 0 0 0 0 0 0 0 0
1 0 2 0 0 0 18 62 111 102 62 167 427 393 417 333 197 204 140 32 0 0 0 0 0 0 0 0 0 0 0 0
0 0 0 3 10 4 43 1 18 88 43 141 445 552 418 351 344 300 164 1 0 0 0 0 0 0 0 0 0 0 0 0
0 0 0 0 72 35 17 0 0 0 37 68 385 372 278 291 425 282 91 25 0 0 0 0 0 0 0 0 0 0 0 0
0 0 7 5 17 34 7 21 11 1 34 77 346 306 113 23 6 2 15 0 0 0 0 0 0 0 0 0 0 0 0 0
0 0 7 80 74 235 144 151 38 44 69 154 343 102 18 3 1 0 0 0 0 0 0 0 0 0 0 0 0 0 0 0
197 238 241 236 186 252 579 546 351 113 139 178 334 128 40 6 2 0 2 0 0 0 0 0 0 0 0 0 0 0 0 0
414 383 422 435 578 754 687 637 865 294 399 528 319 231 68 36 1 0 0 0 0 0 0 0 0 0 0 0 0 0 0 0
505 502 472 526 567 710 984 768 704 700 531 528 452 298 137 37 14 0 0 0 0 0 0 0 0 0 0 0 0 0 0 0

GFSFLT2_con_sbcape_063.txt.gz
CAPE
3 3 4 17 12 121 261 515 627 908 1073 976 938 714 340 278 170 118 65 10 0 0 0 0 0 0 0 0 0 0 0 0
4 0 0 1 29 35 97 183 226 325 423 535 380 277 220 141 115 88 52 28 0 0 0 0 0 0 0 0 0 0 0 0
2 4 5 2 4 8 8 222 153 149 119 76 69 67 37 22 80 83 71 39 18 0 0 0 0 0 0 0 0 0 0 0
12 4 1 0 2 0 1 28 20 23 5 13 0 35 53 52 102 125 68 43 24 0 0 0 0 0 0 0 0 0 0 0
2 3 2 1 3 0 0 0 0 13 16 22 42 62 34 24 18 6 2 2 0 0 0 0 0 0 0 0 0 0 0 0
2 2 0 0 0 0 0 1 14 49 50 19 22 26 3 0 0 0 0 0 0 0 0 0 0 0 0 0 0 0 0 0
1 0 0 0 0 0 0 0 36 36 75 91 63 47 0 3 0 0 0 0 0 0 0 0 0 0 0 0 0 0 0 0
2 1 0 0 0 0 1 0 0 24 51 90 123 101 29 8 0 0 0 0 0 0 0 0 0 0 0 0 0 0 0 0
3 2 0 0 0 0 0 0 0 0 54 99 163 143 69 28 19 11 0 0 0 0 0 0 0 0 0 0 0 0 0 0
3 4 0 0 0 0 0 0 0 0 70 113 113 144 142 77 48 10 1 0 0 0 0 0 0 0 0 0 0 0 0 0
2 0 0 0 0 0 0 0 0 0 54 68 76 117 150 54 6 0 0 0 0 0 0 0 0 0 0 0 0 0 0 0
0 0 0 0 0 0 0 0 22 28 0 16 54 39 119 35 29 5 0 0 0 0 0 0 0 0 0 0 0 0 0 0
0 0 0 0 0 0 0 0 7 1 2 0 63 126 50 52 72 28 0 0 0 0 0 0 0 0 0 0 0 0 0 0
0 0 0 0 0 0 0 0 0 1 0 0 85 143 196 109 83 94 33 0 0 0 0 0 0 0 0 0 0 0 0 0
0 0 0 0 0 0 0 0 0 0 0 0 28 127 144 185 171 128 22 0 0 0 0 0 0 0 0 0 0 0 0 0
0 0 0 0 0 0 0 0 0 0 0 0 46 177 177 79 70 73 8 0 0 0 0 0 0 0 0 0 0 0 0 0
0 0 0 0 0 0 0 0 0 0 0 0 4 62 26 4 8 0 0 0 0 0 0 0 0 0 0 0 0 0 0 0
0 0 0 0 0 0 0 0 0 0 0 0 13 129 95 4 1 1 2 0 0 0 0 0 0 0 0 0 0 0 0 0
0 0 0 0 0 0 0 8 0 0 0 0 60 78 17 0 0 0 0 0 0 0 0 0 0 0 0 0 0 0 0 0
0 0 0 0 0 0 0 37 109 3 0 0 26 55 27 0 0 0 0 0 0 0 0 0 0 0 0 0 0 0 0 0

GFSFLT2_con_sbcape_066.txt.gz
CAPE
3 7 2 37 15 129 374 469 627 833 826 712 555 298 171 67 23 0 0 0 0 0 0 0 0 0 0 0 0 0 0 0
10 6 3 0 2 1 63 211 603 527 425 323 190 83 73 32 0 0 0 0 0 0 0 0 0 0 0 0 0 0 0 0
2 6 2 0 5 1 0 94 287 226 187 131 38 0 0 0 4 0 0 0 0 0 0 0 0 0 0 0 0 0 0 0
5 2 2 3 7 11 2 122 76 61 55 6 5 0 0 0 2 4 9 6 0 0 0 0 0 0 0 0 0 0 0 0
1 2 1 1 3 3 29 1 0 0 13 19 13 2 0 2 1 0 0 0 0 0 0 0 0 0 0 0 0 0 0 0
3 1 0 0 3 0 0 0 0 0 0 23 2 1 0 0 0 0 0 0 0 0 0 0 0 0 0 0 0 0 0 0
1 0 0 0 0 0 0 0 0 0 0 0 4 1 0 0 0 0 0 0 0 0 0 0 0 0 0 0 0 0 0 0
4 0 0 0 0 0 0 0 0 0 4 0 0 0 0 0 0 0 0 0 0 0 0 0 0 0 0 0 0 0 0 0
2 0 0 0 0 0 0 0 0 9 21 12 10 2 0 0 0 0 0 0 0 0 0 0 0 0 0 0 0 0 0 0
3 4 0 0 0 0 0 0 0 10 42 51 22 20 6 0 0 0 0 0 0 0 0 0 0 0 0 0 0 0 0 0
5 1 0 0 0 0 0 0 0 0 33 37 31 63 44 4 5 0 0 0 0 0 0 0 0 0 0 0 0 0 0 0
4 1 0 0 0 0 0 0 0 3 3 43 25 39 70 21 1 0 0 0 0 0 0 0 0 0 0 0 0 0 0 0
0 0 0 0 0 0 0 0 0 0 0 1 17 1 67 0 12 14 0 0 0 0 0 0 0 0 0 0 0 0 0 0
0 0 0 0 0 0 0 0 0 0 0 0 0 0 13 48 37 16 0 0 0 0 0 0 0 0 0 0 0 0 0 0
0 0 0 0 0 0 0 0 0 1 0 0 0 2 25 22 17 8 12 0 0 0 0 0 0 0 0 0 0 0 0 0
0 0 0 0 0 0 0 0 0 0 0 0 0 6 32 57 28 5 0 0 0 0 0 0 0 0 0 0 0 0 0 0
0 0 0 0 0 0 0 0 0 0 0 0 0 0 21 21 37 12 17 0 0 0 0 0 0 0 0 0 0 0 0 0
0 0 0 0 0 0 0 0 0 0 0 0 0 0 18 13 10 3 2 0 0 0 0 0 0 0 0 0 0 0 0 0
0 0 0 0 0 0 0 0 0 0 0 0 0 0 24 44 0 0 0 0 0 0 0 0 0 0 0 0 0 0 0 0
0 0 0 0 0 0 0 0 0 0 0 0 0 0 4 53 2 0 0 0 0 0 0 0 0 0 0 0 0 0 0 0

GFSFLT2_con_sbcape_069.txt.gz
CAPE
1 0 0 2 0 3 263 35 400 756 561 549 485 282 80 3 0 0 0 0 0 0 0 0 0 0 0 0 0 0 0 0
7 6 0 0 0 0 25 49 482 490 449 350 200 105 10 0 0 0 0 0 0 0 0 0 0 0 0 0 0 0 0 0
4 4 2 0 0 3 0 1 386 368 325 187 62 0 0 0 0 0 0 0 0 0 0 5 4 0 0 0 0 0 0 0
3 3 3 1 10 2 0 0 49 162 134 69 16 0 0 0 0 0 0 0 0 0 0 0 0 0 0 0 0 0 0 0
2 3 2 5 1 2 14 15 3 41 66 40 11 0 0 0 0 0 0 0 0 0 0 0 0 0 0 0 0 0 0 0
1 4 6 2 0 0 0 42 31 34 36 26 5 0 0 0 0 0 0 0 0 0 0 0 0 0 0 0 0 0 0 0
1 1 1 0 3 0 4 0 0 1 22 28 5 1 0 0 0 0 0 0 0 0 0 0 0 0 0 0 0 0 0 0
1 1 0 0 0 0 0 0 0 0 3 0 0 0 0 0 0 0 0 0 0 0 0 0 0 0 0 0 0 0 0 0
2 2 2 0 0 0 0 0 0 0 0 0 0 0 0 0 0 0 0 0 0 0 0 0 0 0 0 0 0 0 0 0
4 10 3 0 0 0 0 0 0 0 0 2 0 0 0 0 0 0 0 0 0 0 0 0 0 0 0 0 0 0 0 0
4 3 2 0 0 0 0 0 0 13 22 9 8 0 0 0 0 0 0 0 0 0 0 0 0 0 0 0 0 0 0 0
2 2 1 0 0 0 0 0 1 22 51 40 23 8 4 2 0 0 0 0 0 0 0 0 0 0 0 0 0 0 0 0
2 1 0 0 0 0 0 0 0 5 9 37 38 50 55 11 18 1 0 0 0 0 0 0 0 0 0 0 0 0 0 0
1 0 0 0 0 0 0 0 0 0 0 4 15 29 42 26 11 3 0 0 0 0 0 0 0 0 0 0 0 0 0 0
0 0 0 0 0 0 0 0 0 0 0 0 1 13 37 27 23 10 1 0 0 0 0 0 0 0 0 0 0 0 0 0
0 0 0 0 0 0 0 0 0 0 0 0 0 0 1 28 18 19 11 0 0 0 0 0 0 0 0 0 0 0 0 0
0 0 0 0 0 0 0 0 0 0 0 0 0 0 0 6 10 0 1 0 0 0 0 0 0 0 0 0 0 0 0 0
0 0 0 0 0 0 0 0 0 0 0 0 0 0 0 0 0 1 0 0 0 0 0 0 0 0 0 0 0 0 0 0
0 0 0 0 0 0 0 0 0 0 0 0 0 0 0 0 1 10 0 1 0 0 0 0 0 0 0 0 0 0 0 0
0 0 0 0 0 0 0 0 0 0 0 0 0 0 0 0 13 4 0 0 0 0 0 0 0 0 0 0 0 0 0 0

GFSFLT2_con_sbcape_072.txt.gz
CAPE
0 5 0 0 0 0 44 326 502 589 504 661 452 270 214 152 32 0 0 60 99 2 0 0 0 0 0 0 0 0 0 0
3 5 0 0 0 0 13 161 393 281 337 418 255 142 120 0 0 0 0 0 25 0 0 0 0 0 0 0 0 0 0 0
1 1 0 0 0 0 0 157 212 199 285 257 161 43 1 0 0 0 0 0 12 12 0 0 0 0 0 0 0 0 0 0
1 1 1 0 0 0 7 59 45 79 102 125 94 0 0 0 0 0 0 0 15 11 0 0 0 0 0 0 0 0 0 0
2 1 1 5 0 0 0 1 72 77 79 105 2 2 0 0 0 0 0 0 0 2 0 0 0 0 0 0 0 0 0 0
2 2 1 2 4 0 0 0 23 29 36 35 0 0 0 0 0 0 0 0 0 0 0 0 0 0 0 0 0 0 0 0
3 2 7 0 2 0 0 7 8 41 15 11 0 0 0 0 0 0 0 0 0 0 0 0 0 0 0 0 0 0 0 0
2 4 1 0 0 0 0 2 14 38 34 1 0 0 0 0 0 0 0 0 0 0 0 0 0 0 0 0 0 0 0 0
1 3 1 1 0 2 0 0 8 13 19 12 0 0 0 0 0 0 0 0 0 0 0 0 0 0 0 0 0 0 0 0
1 6 2 0 0 0 0 0 0 0 3 11 0 0 0 0 0 0 0 0 0 0 0 0 0 0 0 0 0 0 0 0
6 4 3 1 0 0 0 0 0 0 0 3 0 0 0 0 0 0 0 0 0 0 0 0 0 0 0 0 0 0 0 0
4 4 2 1 0 0 0 0 0 0 0 0 0 0 0 0 0 0 0 0 0 0 0 0 0 0 0 0 0 0 0 0
3 2 1 0 0 0 0 0 0 0 0 2 0 1 0 0 0 0 0 0 0 0 0 0 0 0 0 0 0 0 0 0
1 1 0 0 0 0 0 0 0 0 0 6 29 26 10 6 14 9 2 0 0 0 0 0 0 0 0 0 0 0 0 0
0 0 0 0 0 0 0 0 0 0 0 0 11 29 41 65 18 11 4 0 0 0 0 0 0 0 0 0 0 0 0 0
0 0 0 0 0 0 0 0 0 0 0 0 0 3 7 29 48 10 3 0 0 0 0 0 0 0 0 0 0 0 0 0
0 0 0 0 0 0 0 0 0 0 0 0 0 0 0 0 9 14 14 3 0 0 0 0 0 0 0 0 0 0 0 0
0 0 0 0 0 0 0 0 0 0 0 0 0 0 0 0 0 6 12 5 9 0 0 0 0 0 0 0 0 0 0 0
0 0 0 0 0 0 0 0 0 0 0 0 0 0 0 0 0 0 13 16 9 4 0 0 0 0 0 0 0 0 0 0
0 0 0 0 0 0 0 0 0 0 0 0 0 0 0 0 0 0 4 5 0 0 0 0 0 0 0 0 0 0 0 0

GFSFLT2_con_sbcape_075.txt.gz
CAPE
266 276 399 262 142 106 98 450 566 589 683 707 493 429 309 366 125 33 120 326 263 126 3 0 0 0 0 0 0 0 3 9
81 109 41 5 14 0 52 277 432 442 507 386 176 217 252 89 0 135 330 239 125 3 0 0 0 0 0 0 0 0 1 3
12 11 4 0 0 0 36 307 320 283 271 180 56 91 76 17 0 82 247 149 40 0 0 0 0 0 0 0 0 0 0 4
26 44 3 3 0 3 6 10 266 191 121 80 13 12 11 0 14 24 156 110 26 4 0 0 0 0 0 0 0 0 0 1
6 1 1 0 0 0 4 36 88 17 32 42 0 9 14 4 5 0 100 102 0 2 3 0 0 0 0 0 0 0 1 3
2 1 3 5 0 0 4 2 3 13 30 10 13 0 0 0 0 0 0 54 78 18 1 0 0 0 0 0 0 0 0 0
4 3 4 1 3 0 11 12 2 0 36 0 4 0 0 0 0 0 0 0 0 0 0 0 0 0 0 0 0 0 0 0
8 6 6 0 1 0 6 12 5 2 4 5 0 0 0 0 0 0 0 0 0 0 0 0 0 0 0 0 0 0 0 0
22 20 4 1 0 1 3 11 14 12 4 32 2 0 0 0 0 0 0 0 0 0 0 0 0 0 0 0 0 0 0 0
20 9 3 1 6 20 3 2 39 2 19 10 3 0 0 0 0 0 0 0 0 0 0 0 0 0 0 0 0 0 0 0
5 5 3 3 6 37 3 1 1 0 8 2 1 0 0 0 0 0 0 0 0 0 0 0 0 0 0 0 0 0 0 0
7 6 4 3 9 4 1 1 3 1 10 1 0 0 0 0 0 0 0 0 0 0 0 0 0 0 0 0 0 0 0 0
10 6 3 1 2 13 2 2 2 2 16 4 1 0 0 0 0 0 7 17 0 0 0 0 0 0 0 0 0 0 0 0
10 4 3 3 0 14 5 1 2 5 9 7 4 0 0 0 11 34 12 54 7 0 0 0 0 0 0 0 0 0 0 0
1 3 3 2 0 0 1 1 1 1 1 10 5 1 0 6 34 77 74 59 59 16 4 7 2 0 0 0 0 0 0 0
11 5 3 3 0 0 1 0 0 0 0 0 2 6 19 39 52 59 125 103 112 84 15 19 6 7 0 0 0 0 0 0
3 4 1 1 4 3 0 1 0 2 0 0 21 18 7 36 68 148 172 144 187 113 36 14 33 8 0 0 0 0 0 0
2 5 6 0 0 2 0 0 0 0 0 0 0 3 7 49 68 126 191 254 253 236 129 39 28 0 5 7 4 3 0 0
0 5 4 2 0 2 0 0 0 0 0 2 4 10 3 17 23 41 77 113 157 173 199 65 48 40 48 22 1 1 0 0
0 0 4 4 0 0 0 0 0 0 0 0 0 0 1 1 19 22 30 50 85 133 151 138 106 43 22 5 1 0 0 0

GFSFLT2_con_sbcape_078.txt.gz
CAPE
1248 1509 599 192 70 126 385 541 892 809 715 615 885 831 858 778 613 633 455 430 120 10 7 2 0 0 0 0 0 3 4 1
571 1028 699 594 358 0 35 494 347 427 472 502 422 462 546 404 285 480 463 325 100 3 2 1 0 0 0 0 0 0 0 1
62 34 327 338 171 110 24 167 313 286 313 252 222 444 231 201 181 325 240 142 64 3 3 1 0 0 0 0 0 0 1 1
6 14 50 75 22 73 193 240 422 325 338 200 190 136 108 223 341 214 123 20 0 1 0 0 0 0 0 0 0 1 8 6
21 33 50 7 17 32 75 285 256 216 146 1 133 102 214 287 390 285 106 0 0 0 0 0 0 0 0 0 0 0 11 7
145 5 14 8 0 2 40 204 218 238 18 2 4 58 151 246 296 163 67 1 0 0 0 0 0 0 0 0 0 0 4 6
270 125 61 52 38 22 13 5 84 2 2 0 2 34 54 65 181 217 130 89 37 6 7 0 0 0 0 0 0 0 0 11
102 25 14 17 14 33 16 4 5 2 1 0 5 26 49 33 18 26 114 190 89 42 24 0 0 0 0 0 0 0 3 8
26 51 25 6 13 10 10 25 12 3 0 0 13 36 45 4 4 5 13 66 41 32 7 0 0 0 0 0 0 0 2 6
28 48 14 18 18 44 12 7 5 4 0 0 6 23 26 16 0 0 0 2 7 6 4 0 0 0 0 0 0 0 0 1
42 27 9 4 14 14 14 12 4 4 0 0 5 18 18 27 14 9 0 0 0 0 0 0 0 0 0 0 0 0 0 0
44 18 5 7 12 19 7 11 10 0 0 0 0 10 78 43 2 2 0 0 0 0 0 0 0 0 0 0 0 0 0 0
26 5 8 10 16 45 7 15 23 1 5 10 20 0 17 39 56 24 3 0 0 0 0 0 0 0 0 0 0 0 0 0
17 10 10 14 26 31 20 16 41 3 5 10 5 2 0 12 36 54 47 52 3 6 1 2 26 0 0 10 18 2 0 0
8 13 7 10 19 37 26 7 25 20 12 11 8 7 1 0 17 44 22 61 45 55 15 11 62 11 0 53 26 37 4 0
7 15 9 8 9 18 28 23 2 14 2 8 7 5 1 17 20 95 91 86 115 152 93 145 166 129 8 1 60 24 28 159
14 20 12 10 4 12 17 20 22 38 0 9 5 8 30 0 35 45 82 195 177 234 203 165 194 225 186 148 38 0 0 1
11 7 10 21 10 7 11 8 5 8 5 18 2 0 0 10 14 106 126 256 233 329 382 336 296 230 292 157 71 28 103 128
9 8 7 11 15 12 18 6 1 3 4 8 0 0 0 0 5 31 136 219 323 315 407 425 303 280 279 246 170 179 251 282
4 2 7 11 6 21 26 17 5 22 61 47 15 0 5 0 3 22 99 167 258 228 401 361 355 339 300 285 260 308 272 174

GFSFLT2_con_sbcape_081.txt.gz
CAPE
1863 1541 922 333 41 76 284 198 27 347 647 827 710 781 873 799 686 680 461 180 114 40 8 0 0 0 0 0 0 2 3 7
1661 1241 858 522 244 127 131 298 243 261 545 428 399 450 598 568 430 473 332 183 76 13 4 0 0 0 0 0 0 0 2 4
396 800 805 447 417 83 29 20 276 217 392 297 191 271 180 352 253 311 263 149 52 10 3 0 0 0 0 0 0 7 6 10
65 427 238 187 187 312 334 406 568 494 459 446 244 275 160 295 318 261 172 89 18 3 0 0 0 0 0 0 4 8 11 5
112 1 170 334 140 206 269 678 971 967 595 286 72 174 158 88 332 284 179 41 0 0 0 0 0 0 0 1 5 17 20 3
42 4 38 165 137 79 205 306 492 425 478 123 103 84 57 153 194 178 179 0 0 0 0 3 0 0 0 2 1 25 24 3
226 74 1 4 34 32 1 240 248 330 288 201 16 13 79 57 114 262 124 39 0 0 0 0 1 0 0 2 4 28 22 6
305 109 49 52 75 113 71 39 81 186 8 41 20 0 29 35 37 134 228 161 61 17 10 1 0 0 1 3 7 23 28 9
121 101 6 22 19 15 9 8 8 1 0 1 0 0 42 93 83 162 298 235 251 140 39 0 0 0 0 5 6 16 16 27
109 30 33 38 26 13 10 6 4 3 3 0 0 0 10 6 76 131 269 266 184 120 38 0 2 0 0 3 5 5 18 27
54 79 45 62 67 19 11 3 2 1 0 0 0 0 0 0 44 116 137 100 100 112 94 79 13 3 1 0 2 0 19 6
8 44 30 39 8 38 4 12 7 0 2 0 0 0 10 31 32 63 59 15 57 98 102 65 35 3 0 0 0 0 1 15
15 25 13 10 13 15 3 7 9 0 0 0 0 9 40 37 70 73 62 16 10 68 30 46 5 4 0 0 0 0 0 0
7 23 18 13 17 17 5 2 6 2 0 0 0 18 36 141 158 147 45 24 67 64 52 56 15 17 0 0 0 0 0 0
7 10 14 20 19 20 6 3 8 4 0 0 3 39 85 154 158 131 94 191 140 233 225 206 146 22 17 106 146 169 114 0
8 8 14 11 15 10 7 6 8 1 0 0 0 34 61 78 113 112 170 170 206 191 179 194 158 111 0 0 108 178 104 28
7 9 6 6 13 10 26 13 5 9 4 0 0 0 2 13 56 99 86 105 253 233 192 131 191 243 180 140 130 141 118 66
5 14 14 7 20 21 31 22 23 17 1 0 4 3 11 31 59 24 59 79 199 269 313 230 230 278 267 333 232 147 91 20
0 7 5 17 15 12 27 58 30 2 0 0 0 0 0 0 6 37 33 67 219 321 296 348 294 303 223 235 136 185 118 225
2 1 8 12 13 15 23 42 39 37 1 0 0 0 0 0 0 0 10 34 101 320 294 315 573 435 479 296 181 354 289 310

GFSFLT2_con_sbcape_084.txt.gz
CAPE
1486 1782 857 198 169 183 241 176 47 3 2 12 1114 1002 972 911 679 811 696 434 183 40 7 6 2 0 0 0 0 39 0 0
1348 1374 1110 663 157 109 186 102 50 67 33 109 367 393 415 371 478 435 441 235 69 17 1 0 0 0 0 0 0 7 0 0
702 872 722 552 372 128 43 220 222 158 31 32 166 272 207 189 344 254 190 130 65 8 0 0 0 0 0 0 0 3 0 0
305 688 330 480 409 51 90 107 251 179 2 121 175 172 101 125 200 179 131 71 11 3 0 0 0 0 0 0 0 14 0 0
87 110 315 19 11 294 398 243 336 332 127 115 134 134 128 90 108 122 60 32 2 0 0 0 0 0 0 0 2 11 0 0
107 32 139 410 173 65 224 293 213 241 199 110 101 51 77 22 46 88 23 0 0 0 0 0 0 0 0 0 12 1 0 0
166 88 17 27 89 119 60 208 189 148 215 77 25 12 13 94 111 46 17 0 0 0 0 0 0 0 0 3 21 0 0 0
359 221 41 0 9 46 59 50 185 151 148 191 69 16 0 61 42 58 7 0 1 0 0 0 0 0 0 0 16 1 0 0
372 200 12 8 52 8 9 9 6 77 98 80 1 3 3 11 12 43 34 17 0 4 2 1 0 0 0 3 14 19 0 0
279 111 6 22 13 8 2 1 1 1 0 39 1 1 2 0 0 6 90 154 80 17 3 0 0 0 0 1 5 29 7 0
170 56 18 27 25 9 2 2 3 2 0 0 0 0 0 0 0 6 25 75 89 40 27 0 0 0 0 2 1 13 22 4
116 55 18 37 35 5 5 4 5 2 2 2 0 0 0 0 0 0 0 15 44 30 12 5 0 0 0 9 20 16 0 2
5 12 14 17 18 5 5 1 3 0 0 0 0 0 0 0 0 0 3 13 10 18 7 0 0 0 0 1 19 24 5 2
0 6 11 12 11 3 2 1 1 0 0 0 0 0 0 0 0 0 5 6 51 53 14 6 0 0 0 0 0 0 0 0
1 5 13 9 9 1 3 2 1 0 0 0 0 0 0 0 0 0 9 10 33 34 3 0 0 0 0 17 18 2 0 0
0 1 7 7 14 1 3 1 0 0 0 0 0 0 0 0 0 1 39 32 45 11 25 1 55 0 4 6 10 61 48 4
0 1 11 11 19 1 1 2 0 0 0 0 0 0 12 35 15 36 25 114 98 88 96 69 86 89 4 30 6 78 72 56
0 1 7 8 13 1 0 0 0 0 0 0 0 0 12 20 50 60 77 91 93 100 90 83 56 83 126 119 66 70 81 32
0 3 4 7 18 7 3 0 0 0 0 0 0 0 0 0 7 27 54 57 113 101 67 82 108 76 65 48 115 128 88 28
0 4 6 4 13 9 16 0 0 0 0 0 0 0 0 0 0 0 7 33 55 74 42 32 79 96 85 60 58 63 52 35

GFSFLT2_con_sbcape_087.txt.gz
CAPE
1132 856 721 604 395 293 232 242 172 99 16 0 2 14 713 1037 925 885 824 597 415 210 87 40 0 0 0 0 0 0 0 0
1022 625 61 0 0 138 178 132 78 39 56 5 7 2 344 468 606 667 475 393 224 100 27 0 0 0 0 0 0 0 0 0
435 674 263 27 0 61 248 121 73 89 68 39 4 120 207 232 371 396 374 205 122 66 9 0 0 0 0 0 0 0 0 0
150 515 203 138 123 7 4 46 93 30 0 29 4 138 101 182 180 213 202 120 58 3 0 0 0 0 0 0 0 0 0 0
29 168 180 214 126 0 0 12 44 7 1 58 126 85 98 88 75 57 54 12 0 0 0 0 0 0 0 0 0 0 0 0
0 0 7 29 27 67 38 43 66 62 0 59 71 88 29 53 26 28 0 0 0 0 0 0 0 0 0 0 0 0 0 0
0 0 9 63 11 0 0 6 30 28 12 33 36 26 9 5 14 1 6 0 0 0 0 0 0 0 0 0 0 0 0 0
0 0 0 0 0 0 0 0 0 1 10 12 6 4 6 4 21 0 0 0 0 0 0 0 0 0 0 0 0 0 0 0
0 0 0 0 0 0 0 0 0 0 2 1 3 4 1 3 7 0 0 0 0 0 0 0 0 0 0 0 0 0 0 0
10 0 0 7 7 0 0 0 0 0 0 36 5 4 1 10 3 0 0 0 0 0 0 0 0 0 0 0 1 0 0 0
4 0 0 0 5 1 0 0 0 0 0 5 3 5 0 11 0 0 1 5 0 1 0 0 0 0 0 0 0 0 0 0
0 0 0 1 2 1 2 1 1 0 0 0 1 0 0 15 0 0 13 7 3 1 0 0 0 0 1 0 0 0 0 0
0 0 0 1 2 1 3 2 2 2 2 0 0 0 0 0 0 0 0 2 0 0 0 0 0 0 0 0 0 1 0 0
0 0 0 0 2 1 1 1 1 0 0 0 0 1 0 0 0 0 0 0 0 0 0 0 0 0 0 0 0 0 0 0
0 0 0 0 5 1 1 0 0 0 0 0 0 0 0 0 0 0 0 0 0 0 0 0 0 0 0 0 0 0 0 0
0 0 0 1 7 1 0 0 0 0 0 0 0 0 0 0 0 0 0 0 0 0 0 0 1 0 0 0 3 3 0 0
0 0 0 4 3 1 0 0 0 0 0 0 0 0 0 0 0 0 0 0 0 1 4 11 11 0 0 0 0 13 7 0
0 0 1 7 1 0 0 0 0 0 0 0 0 0 0 0 0 0 0 0 1 2 17 14 46 22 1 11 3 6 18 37
0 0 1 13 3 0 0 0 0 0 0 0 0 0 0 0 0 0 0 3 23 11 22 38 51 70 45 22 41 13 27 14
0 0 0 6 3 0 0 0 0 0 0 0 0 0 0 0 0 3 7 11 20 28 30 30 44 30 9 6 24 18 17 17

GFSFLT2_con_sbcape_090.txt.gz
CAPE
1048 1103 963 1159 1569 1475 951 551 203 152 138 63 30 38 6 154 570 803 738 615 584 504 311 165 19 0 0 0 0 0 0 0
549 606 238 46 65 364 255 261 157 129 150 43 44 27 0 0 293 534 632 579 430 328 97 25 3 0 0 0 0 0 0 0
428 99 11 0 0 25 114 87 101 81 75 16 10 3 0 25 198 357 421 291 230 135 24 0 2 0 0 0 0 0 0 0
293 228 18 0 0 1 0 13 0 0 3 9 0 0 3 23 175 212 230 168 109 40 0 0 0 0 0 0 0 0 0 0
3 183 99 30 1 0 0 0 1 1 3 28 12 31 131 124 101 85 45 28 1 1 0 0 0 0 0 0 0 0 0 0
0 26 94 82 19 0 0 0 1 1 3 8 41 62 36 89 67 44 15 0 0 0 0 0 0 0 0 0 0 0 0 0
0 0 14 5 44 27 0 0 0 1 7 16 56 87 33 53 20 2 1 0 0 0 0 0 0 0 0 0 0 0 0 0
0 0 0 0 0 0 0 0 0 2 1 1 60 30 36 21 6 1 0 0 0 0 0 0 0 0 0 0 0 0 0 0
0 0 0 0 0 0 0 0 0 7 3 5 10 2 6 13 2 0 0 0 0 0 0 0 0 0 0 0 0 0 0 0
0 0 0 0 0 0 0 0 0 0 14 11 1 0 0 6 2 0 0 0 0 0 0 0 0 0 0 0 0 0 0 0
0 0 0 0 0 0 0 0 0 0 2 21 1 2 1 9 1 0 0 0 0 0 0 0 0 0 0 0 0 0 0 0
0 0 0 0 0 1 1 0 0 0 0 0 16 11 1 2 6 0 0 0 0 0 0 0 0 0 0 0 0 0 0 0
0 0 0 0 0 1 1 0 1 0 0 0 7 3 2 1 1 0 0 0 0 0 0 0 0 0 0 0 0 0 0 0
0 0 0 0 0 0 1 0 1 0 0 0 4 0 2 11 0 0 0 0 0 3 0 0 0 0 0 0 0 0 0 0
0 0 0 0 0 0 0 0 1 0 0 0 1 0 0 1 0 0 0 0 0 0 0 10 11 0 3 0 0 0 0 0
0 0 0 0 0 0 0 0 1 0 0 0 1 2 0 0 0 0 0 0 0 0 1 9 15 6 0 0 0 0 0 0
0 0 0 0 0 0 0 0 0 0 0 0 0 0 0 1 0 0 0 0 0 0 0 0 3 0 0 0 0 0 0 0
0 0 0 0 0 0 0 0 0 0 0 0 0 0 0 0 0 0 0 0 0 0 0 0 7 2 3 0 6 23 11 25
0 0 0 1 0 0 0 0 0 0 0 0 0 0 0 0 0 0 0 0 0 0 0 0 27 27 4 0 0 1 13 27
0 0 0 1 1 0 0 0 0 0 0 0 0 0 0 0 0 0 0 0 0 0 0 0 11 38 30 15 7 1 1 15

GFSFLT2_con_sbcape_093.txt.gz
CAPE
714 946 1216 1679 1974 1945 1631 924 673 556 369 548 763 379 312 294 435 656 721 682 587 542 467 311 123 18 0 0 0 0 0 0
669 738 692 524 828 1471 887 400 151 190 180 120 303 353 442 427 319 289 559 661 691 465 344 63 0 0 0 0 0 0 0 0
196 220 109 36 45 509 357 149 282 299 261 91 66 22 12 65 148 204 209 337 322 359 143 0 0 0 0 0 0 0 0 0
120 23 0 0 11 35 2 65 33 0 2 9 1 2 0 2 76 98 236 192 176 160 2 0 0 0 0 0 0 0 0 0
32 15 0 0 0 0 0 0 0 0 0 0 0 2 1 4 63 126 133 139 62 18 0 0 0 0 0 0 0 0 0 0
0 6 1 0 0 0 0 1 0 0 0 0 10 3 7 98 101 113 19 2 5 0 0 0 0 0 0 0 0 0 0 0
0 0 1 1 0 0 0 0 0 1 0 0 34 35 26 68 59 28 3 0 0 0 0 0 0 0 0 0 0 0 0 0
0 0 0 0 0 2 0 1 6 1 0 2 28 17 42 29 76 54 0 0 0 0 0 0 0 0 0 0 0 0 0 0
0 0 0 0 0 0 0 0 21 2 0 0 39 43 40 50 54 39 1 0 0 0 0 0 0 0 0 0 0 0 0 0
0 0 0 0 0 0 0 0 1 12 1 11 31 43 23 31 29 3 0 0 0 0 0 0 0 0 0 0 0 0 0 0
0 0 0 0 0 0 0 0 0 1 10 17 21 18 12 26 5 0 0 0 0 0 0 0 0 0 0 0 0 0 0 0
0 0 0 0 0 0 0 0 0 0 0 3 6 13 5 21 1 0 0 0 0 0 0 0 0 0 0 0 0 0 0 0
0 0 0 0 0 0 0 0 0 0 0 0 1 18 1 2 2 0 0 0 0 0 0 0 0 0 0 0 0 0 0 0
0 0 0 0 0 0 0 0 0 0 0 0 0 3 2 1 2 0 0 0 0 0 0 0 0 0 0 0 0 0 0 0
0 0 0 0 0 0 0 0 1 1 0 1 2 6 8 5 1 0 0 0 0 0 0 0 0 0 0 0 0 0 0 0
0 0 0 0 0 0 0 0 0 0 0 0 2 10 12 8 1 0 0 0 0 0 0 6 22 0 0 0 0 0 24 0
0 0 0 0 0 0 0 0 0 0 0 0 0 1 0 0 0 0 0 0 0 0 0 10 34 13 12 3 20 0 0 0
0 0 0 0 0 0 0 0 0 0 0 0 0 0 0 0 0 1 0 0 0 0 0 8 16 21 27 1 9 10 9 0
0 0 0 0 0 0 0 0 0 0 0 0 0 0 0 0 1 1 0 0 0 0 0 0 0 1 2 17 28 36 35 16
0 0 0 0 0 0 0 0 0 0 0 0 0 0 0 0 0 0 0 3 0 0 0 0 0 0 2 2 17 15 37 18

GFSFLT2_con_sbcape_096.txt.gz
CAPE
582 902 1451 1714 1816 1760 1689 1543 1521 1404 1058 1260 965 722 610 724 617 489 446 678 843 974 713 493 291 124 50 1 0 0 0 0
464 582 801 1065 1256 1447 1369 1024 640 494 606 655 206 131 245 121 88 237 445 547 654 827 486 283 119 20 15 0 0 0 0 0
237 307 259 210 418 787 713 396 158 182 214 221 21 9 66 45 40 145 530 331 355 586 236 92 15 5 0 0 0 0 0 0
158 6 0 0 103 425 230 141 104 77 28 4 2 0 0 84 77 232 258 266 284 214 54 16 0 0 0 0 0 0 0 0
179 1 0 0 1 1 4 90 12 1 0 1 0 0 0 0 24 93 89 151 161 76 2 0 0 0 0 0 0 0 0 0
4 0 0 0 0 1 0 0 0 0 0 1 1 0 1 0 3 36 109 135 64 0 0 0 0 0 0 0 0 0 0 0
0 0 1 0 0 0 0 1 0 0 0 0 1 3 3 4 10 68 48 95 14 0 0 0 0 0 0 0 0 0 0 0
0 0 1 0 0 0 0 0 0 1 2 1 0 3 4 17 38 56 1 1 0 0 0 0 0 0 0 0 0 0 0 0
0 0 1 0 0 0 0 1 1 1 1 0 1 1 0 22 3 5 1 0 0 0 0 0 0 0 0 0 0 0 0 0
0 0 0 1 0 0 1 1 10 5 1 1 3 0 1 18 14 21 1 0 0 0 0 0 0 0 0 0 0 0 0 0
0 1 0 0 0 0 0 0 3 25 2 2 6 8 1 8 24 6 0 0 0 0 0 0 0 0 0 0 0 0 0 0
0 1 0 1 0 0 0 1 1 2 17 7 14 13 6 2 5 0 0 0 0 0 0 0 0 0 0 0 0 0 0 0
0 1 0 0 0 0 0 0 0 0 0 0 22 30 7 10 0 0 0 0 0 0 0 0 0 0 0 0 0 0 0 0
0 1 1 0 0 0 0 0 0 0 0 0 0 1 21 11 1 0 0 0 0 0 0 0 0 0 0 0 1 0 0 0
0 0 0 1 0 0 0 0 0 0 0 0 0 0 1 37 1 0 0 0 0 0 0 0 0 0 0 0 0 0 0 0
0 0 0 0 0 0 0 0 0 0 0 0 0 0 2 6 3 0 0 0 0 0 0 0 0 0 0 0 0 0 1 0
6 0 0 0 0 0 0 0 0 0 0 0 1 2 0 5 1 0 0 0 0 0 0 0 0 8 13 1 0 0 0 0
0 0 0 0 0 0 0 0 0 0 0 0 0 7 10 10 3 1 0 0 0 0 0 0 0 3 21 22 24 22 8 0
0 0 0 0 0 0 0 0 0 0 0 0 0 0 0 1 0 0 0 0 0 0 0 0 6 7 7 11 30 28 36 16
0 0 1 0 0 0 0 0 0 0 0 0 0 0 0 0 0 0 0 0 1 0 0 0 12 4 4 4 1 21 26 16

GFSFLT2_con_sbcape_099.txt.gz
CAPE
1747 1941 1606 1468 1538 1504 1511 1473 1560 1435 1264 1291 1118 932 700 695 805 1070 993 798 949 874 881 560 536 317 131 20 1 14 27 11
1405 1989 2110 2074 2105 1388 1347 1416 1361 1422 1080 884 711 566 608 705 852 736 586 651 752 585 498 317 282 149 30 0 0 3 45 12
1350 1466 1646 1988 2140 1678 1204 1059 814 659 720 750 556 652 532 766 389 399 554 470 466 468 317 157 70 31 0 0 0 42 20 8
1383 1346 1329 1356 1297 1095 1176 821 327 299 773 803 1099 642 601 277 104 80 300 281 374 348 161 51 64 50 50 0 56 17 33 21
916 788 980 958 700 495 493 407 200 70 355 261 85 13 53 208 346 272 474 250 246 152 87 243 237 169 49 12 8 2 15 35
359 352 631 747 680 98 174 434 429 69 10 12 3 8 28 41 308 354 316 314 104 36 149 235 73 33 0 0 0 0 13 25
555 167 453 523 475 498 466 283 128 8 2 2 23 101 175 283 161 123 117 150 2 0 0 1 8 0 0 0 0 0 1 33
464 94 139 265 320 323 280 272 68 3 4 3 37 6 7 4 94 33 128 145 4 0 0 4 30 0 0 0 0 0 0 17
127 55 62 19 22 159 111 66 18 4 4 4 15 8 58 12 6 17 32 45 1 1 2 0 6 0 0 0 0 0 0 6
6 103 1 1 0 78 52 3 3 7 21 68 26 219 63 41 6 29 7 1 1 0 0 0 0 0 0 0 0 0 0 0
11 107 2 0 140 138 74 2 4 0 32 24 55 32 148 84 83 9 1 2 2 2 2 0 1 14 11 0 0 6 13 1
60 68 7 0 31 23 16 3 3 9 28 28 53 150 101 110 28 10 3 2 2 2 1 0 4 29 4 2 3 14 10 8
82 95 1 0 4 2 4 3 6 5 2 11 48 78 33 59 3 3 5 3 3 1 1 0 5 26 20 9 8 11 10 7
123 128 1 3 4 3 2 2 2 1 1 0 30 172 63 44 1 1 0 4 3 1 0 3 8 3 9 8 11 8 12 11
169 225 19 22 5 1 0 1 2 2 3 3 0 0 18 89 1 2 1 0 1 0 0 0 6 5 4 4 13 22 9 11
179 216 31 11 1 1 0 0 0 0 3 3 1 0 9 0 10 2 0 0 0 0 0 0 0 2 0 0 16 3 31 29
196 190 19 4 2 1 1 1 1 5 5 2 3 3 2 20 7 1 1 1 0 0 0 0 0 0 0 0 0 16 38 28
230 130 9 3 1 1 0 2 1 1 2 3 4 7 16 24 40 9 1 2 6 1 0 0 0 0 0 0 0 2 9 24
307 154 2 3 6 1 1 3 0 1 3 1 2 8 21 36 20 18 3 5 5 1 0 0 0 0 0 0 0 16 60 76
194 83 8 3 3 1 3 1 0 0 1 2 6 3 0 14 37 1 1 0 4 1 2 1 0 0 0 0 0 6 67 73

GFSFLT2_con_sbcape_102.txt.gz
CAPE
2379 2096 1834 1287 1319 1436 1493 1516 1616 1681 1675 1522 1189 1221 1052 892 856 815 501 851 974 1202 931 663 579 274 204 57 43 59 325 203
2502 2420 2246 2248 2086 1208 1230 1402 1460 1447 1321 1046 761 709 832 874 767 846 1108 864 750 816 699 474 352 179 85 29 18 26 307 213
2347 2377 2343 2085 2118 1800 1165 1226 1344 1269 1081 758 605 1334 1122 823 597 765 826 714 613 648 402 195 159 92 24 22 2 321 165 119
2232 2299 2279 2248 1878 2236 2353 2285 2071 1856 1547 1346 1228 1113 1103 615 461 464 556 445 412 220 153 129 134 313 217 29 369 214 194 49
2114 2282 2273 2133 1883 1661 1762 2002 1748 1794 1411 1495 1409 1360 1085 796 922 621 550 326 710 145 93 152 175 583 376 389 286 306 116 47
1933 2017 2159 2101 1630 1620 1492 1052 1249 1341 1223 925 1121 1204 919 786 788 399 502 378 474 184 73 108 301 444 389 322 231 110 98 49
1758 1787 1942 1764 1631 1287 1016 822 924 1027 912 555 774 894 637 279 352 497 609 835 251 132 77 111 505 355 236 209 159 85 75 64
1904 1595 1624 1553 1428 1351 1187 1192 859 681 602 411 360 722 598 618 569 507 740 755 407 129 73 103 495 399 210 173 155 99 74 60
1680 1652 1421 1452 1349 1361 1054 756 1107 614 359 321 463 400 545 454 346 369 580 396 12 6 1 14 30 234 169 148 137 98 44 30
1405 1286 1176 958 1195 1221 899 654 841 765 479 261 320 432 482 443 340 256 274 142 11 3 0 4 44 157 168 165 149 74 40 40
1151 1348 1110 665 704 1037 922 594 308 608 428 455 388 517 419 391 281 67 62 1 2 2 2 0 17 165 141 120 103 52 35 32
952 1102 1144 460 412 1046 825 361 122 115 78 488 504 295 384 428 302 5 2 2 2 1 0 2 13 142 107 112 94 51 44 42
819 1001 1190 352 643 758 524 201 41 319 154 124 274 397 287 262 110 9 5 5 2 2 1 0 1 56 72 41 77 53 28 44
621 870 1116 837 979 859 547 336 77 103 30 172 402 419 274 232 40 40 6 10 7 3 2 3 3 30 45 33 19 10 45 35
424 701 1056 888 974 791 474 347 67 88 61 6 65 312 176 45 40 12 3 4 5 8 6 11 7 5 54 51 22 33 15 27
231 514 895 858 968 740 366 184 75 77 40 4 4 50 47 47 38 25 4 1 1 8 9 0 3 6 63 80 58 40 23 53
292 475 772 848 958 706 500 457 318 102 18 9 10 28 60 54 10 35 16 3 2 1 9 15 0 14 35 116 83 65 59 37
454 533 774 831 840 711 614 523 237 30 8 11 18 19 24 29 67 11 2 5 6 3 0 1 10 32 115 183 47 42 62 61
579 614 765 753 381 545 541 266 225 53 3 3 8 6 22 25 41 67 11 3 4 1 0 0 0 0 23 35 7 0 0 43
637 652 663 308 169 402 337 98 277 34 2 2 5 12 24 27 51 56 34 8 3 4 2 2 1 0 0 0 0 20 2 17

GFSFLT2_con_sbcape_105.txt.gz
CAPE
2547 1942 1610 1282 1381 1367 1399 1603 1602 1566 1875 1840 1586 1395 1163 1208 1060 966 958 1017 1309 1261 1028 845 614 344 268 132 120 114 304 232
2601 2425 2114 1993 1691 1236 1251 1305 1499 1553 1574 1551 1148 989 904 1002 822 832 633 567 1029 1072 756 460 254 152 88 50 10 89 332 67
2481 2407 2248 2262 1873 1666 1040 1144 1264 1264 1337 825 874 1664 1468 1141 745 648 749 897 950 914 464 161 118 82 59 48 36 242 316 46
2067 2229 2170 2114 1807 2207 1969 1737 1809 1718 1452 1593 1753 1347 1483 1219 824 653 788 704 571 489 192 84 93 130 112 55 196 374 341 27
1776 2119 2218 2283 2168 2237 2170 2355 2411 2178 1844 1798 1775 1628 1833 1368 1540 676 721 491 606 228 121 170 38 50 207 252 367 379 126 69
1693 1935 2238 2315 1835 2166 1790 1987 2222 1962 1802 1771 1879 1806 1813 1616 1390 1018 1069 1065 729 803 492 115 15 74 169 428 295 266 33 52
1812 1871 2224 2178 2112 1793 1627 1596 1751 1744 1712 1551 1684 1591 1453 1366 1219 1025 832 1111 775 641 405 25 34 68 148 308 299 359 87 50
1835 1963 2046 2023 1976 1719 1526 1368 1109 1480 1438 1378 1478 1551 1472 1178 978 740 570 1014 884 760 305 67 50 45 238 421 181 147 97 111
1906 2143 2059 2030 1863 1844 1673 1295 1102 1085 945 1218 1182 1275 1190 897 687 576 641 1144 724 590 287 60 96 103 309 234 105 97 81 47
1362 1975 2117 1981 1834 1757 1577 1077 1041 1108 838 1125 1138 1116 1086 1029 908 858 802 800 436 262 130 29 53 90 80 183 94 57 54 66
838 1965 2152 1962 1817 1736 1640 1215 959 744 826 889 926 861 1000 897 818 774 919 599 76 35 33 31 59 52 71 118 66 69 42 17
423 1715 2140 2047 1589 1653 1533 1252 936 704 753 716 681 895 1074 793 674 558 500 177 48 5 5 5 36 47 93 68 82 122 52 46
468 1466 2005 1827 1079 1355 1502 1294 472 534 392 607 873 714 835 771 522 11 8 3 2 1 1 1 16 24 31 60 137 124 61 37
341 932 1477 1814 1095 1135 1380 1152 408 674 632 522 486 356 620 627 300 11 6 4 3 1 1 1 1 11 32 30 57 30 80 51
0 565 1079 1658 1105 1208 1319 1070 545 457 442 487 490 432 666 553 315 21 8 6 4 2 2 2 2 1 4 43 8 28 64 78
0 150 738 1300 1296 1313 1485 1081 787 578 607 190 372 443 350 383 124 7 10 4 4 3 7 6 1 3 7 52 24 28 54 45
44 17 416 1008 1497 1527 1710 1130 925 699 590 353 191 281 151 199 92 73 6 10 3 4 18 69 13 0 8 29 46 75 117 108
29 38 266 972 1404 1672 1790 1160 1029 842 661 280 56 138 146 146 95 25 16 10 5 5 12 37 52 25 7 39 39 54 54 66
45 99 292 879 1412 1590 1436 1131 1160 969 575 230 147 39 28 111 227 117 16 3 11 2 4 3 8 4 4 55 86 118 109 100
0 27 455 642 1244 1364 1471 1242 1200 851 547 224 113 45 12 13 27 94 50 29 1 2 5 0 0 4 23 42 46 60 4 3

GFSFLT2_con_sbcape_108.txt.gz
CAPE
1932 1483 1318 1155 1149 1261 1509 1606 1597 1477 1571 1954 1960 1756 1702 1636 1529 1526 1512 1398 1282 1403 1234 1012 637 552 492 416 380 117 36 232
2302 1980 1605 1484 1303 956 1150 1373 1303 1435 1548 1624 1427 1391 1269 1151 1071 1119 1051 1106 1111 959 710 470 315 178 126 25 64 25 14 141
2870 2344 1950 1858 1622 1176 829 1003 1217 1238 1310 1142 1024 1421 1049 935 763 659 652 405 829 815 459 208 109 109 125 98 23 87 6 24
2600 2488 2207 2231 1514 1523 1368 1315 1240 1252 1489 1380 1538 1519 1392 1088 743 604 546 504 674 466 205 73 68 91 78 59 50 97 48 9
2158 2525 2454 2293 1577 2007 1687 1556 1516 1447 1432 1655 1593 1357 1363 1006 1030 433 555 579 618 197 47 44 34 43 58 46 62 112 68 2
1889 2189 2639 2167 1806 2185 2050 1818 1957 1855 1807 1581 1443 1290 1155 1129 1092 893 685 496 554 185 89 85 7 1 2 20 102 100 22 9
1699 2045 2317 2488 2647 2051 1768 1927 1894 1923 1672 1618 1402 1309 1140 1134 1001 1008 835 805 597 348 192 51 5 3 1 51 67 58 33 6
1778 1881 2355 2401 2053 2355 1803 1746 1699 1471 1462 1292 1469 1308 1137 931 904 807 738 737 579 464 268 43 13 10 3 38 73 74 21 29
1900 1939 2511 2284 2097 2138 1692 1367 1051 1018 1108 1005 1251 1372 1073 775 803 754 658 605 609 358 291 50 8 28 15 40 69 40 64 21
2058 1999 2197 2309 2082 1952 1541 1556 1092 826 836 1011 753 1077 1149 900 740 586 368 531 432 401 246 127 18 22 8 35 82 21 51 33
2052 2022 2252 2120 2151 1835 1706 1684 1244 1022 672 671 729 912 954 842 632 519 478 391 332 269 196 88 30 33 78 67 60 4 35 26
1829 2188 2337 2043 1942 1822 1627 1525 1017 907 701 736 749 651 904 953 706 495 316 283 96 78 32 57 22 36 129 121 7 22 15 13
1003 2131 2323 2025 1870 1723 1577 1399 1125 792 657 545 482 599 759 851 518 308 190 80 55 1 11 31 23 33 4 24 0 17 31 45
447 1965 2289 1972 1832 1579 1479 1391 906 493 316 356 583 660 798 640 353 15 0 0 1 2 2 7 7 8 2 12 0 0 11 30
4 554 2125 1896 1576 1214 1145 797 424 349 467 335 372 539 461 538 141 0 0 0 2 1 0 0 0 4 0 0 2 7 12 35
6 69 1152 1802 1399 1026 882 810 501 345 451 224 301 306 425 415 103 0 0 2 1 1 0 0 0 1 1 12 0 0 1 16
71 23 336 1318 1505 1075 1003 1235 755 319 441 292 188 447 308 358 127 2 1 1 1 1 0 0 0 0 0 0 1 0 15 20
0 75 74 662 1512 1255 1255 1247 938 626 607 307 216 177 259 207 98 3 1 1 1 1 1 1 0 2 0 0 0 0 0 0
0 0 29 283 1464 1385 1344 1471 1135 810 637 450 164 134 116 135 87 47 9 1 2 0 2 8 0 1 0 0 3 8 13 9
0 0 9 165 1167 1532 1254 1647 1061 1006 791 411 118 99 44 9 111 17 3 1 1 1 1 0 0 0 0 0 0 0 18 29

GFSFLT2_con_sbcape_111.txt.gz
CAPE
891 1003 1086 1251 1463 1590 1634 1660 1544 1329 1392 1814 1963 1767 1585 1529 1619 1674 1596 1539 1528 1447 1237 1089 987 803 703 441 72 75 30 181
847 841 788 692 860 1225 1346 1434 1291 1096 1124 1331 1740 1546 1433 1269 1330 1408 1423 1305 1325 1278 941 744 594 496 365 68 52 49 0 138
1130 980 876 729 641 809 1076 1141 1175 1234 1242 1394 1276 1058 1085 1092 837 995 1028 1009 1003 848 596 380 262 166 112 85 44 37 3 165
1491 1141 1041 963 1052 701 571 730 687 720 951 790 796 776 615 661 554 588 475 511 699 595 363 122 44 35 46 62 51 33 10 47
1850 1496 1377 1322 1252 629 683 594 533 570 864 710 764 848 681 455 211 321 173 81 363 266 78 3 1 18 41 61 19 64 17 50
2030 1714 1638 1468 1044 990 909 871 695 650 528 723 732 559 540 438 187 24 72 131 44 0 0 0 0 0 23 39 28 66 20 15
1881 1817 1744 1272 1130 1514 1125 992 988 969 855 682 574 545 330 360 363 57 121 33 20 0 0 0 0 0 0 0 8 31 25 12
1596 1758 1798 1459 1278 1607 1211 948 1206 1021 804 770 605 508 371 358 262 336 191 139 9 0 0 0 0 0 0 3 15 52 32 3
1393 1622 1889 1623 1588 1434 1122 876 804 590 649 651 713 602 416 324 178 156 151 131 15 0 0 0 0 0 0 1 14 57 31 1
1291 1688 1790 1862 1528 1244 1090 763 449 451 336 346 794 738 348 217 198 143 49 54 33 3 1 1 1 1 2 4 13 82 53 5
1249 1568 1821 1784 1428 1133 823 637 415 275 322 383 402 715 427 222 144 158 82 6 0 0 0 5 1 4 4 1 8 58 23 16
1310 1390 1876 1760 1428 1205 910 577 442 374 280 234 243 422 413 163 101 69 25 14 30 0 1 0 1 4 35 15 7 44 0 5
1461 1456 1686 1695 1654 1314 1144 827 562 505 266 255 213 202 310 187 112 42 34 90 108 32 0 9 1 0 40 59 19 3 1 1
1559 1628 1737 1693 1752 1386 1098 589 109 76 46 226 233 164 216 201 119 22 29 0 1 0 4 4 9 15 38 55 1 1 0 6
1426 1793 1819 1630 1497 1024 615 229 83 57 24 50 102 135 190 303 23 1 0 0 0 1 0 1 4 29 28 0 0 0 0 0
103 1906 1822 1549 1245 1276 995 716 575 310 114 51 80 88 112 78 1 0 0 0 0 0 0 7 6 13 1 1 0 0 0 1
0 0 1717 1528 1299 1117 848 406 195 7 62 53 67 47 26 33 0 0 0 0 0 0 2 4 1 0 0 0 0 0 0 0
0 0 0 1196 996 859 839 615 178 44 67 81 95 90 44 42 0 0 0 0 0 0 3 1 0 0 0 0 0 0 0 0
0 0 0 0 847 596 625 434 295 41 50 74 99 61 143 66 3 0 0 0 0 1 2 0 0 0 1 0 0 0 0 0
0 0 0 0 695 788 652 520 393 167 88 87 87 75 38 65 32 0 0 0 0 1 2 1 0 0 0 0 0 0 0 0

GFSFLT2_con_sbcape_114.txt.gz
CAPE
732 952 1234 1483 1595 1609 1497 1454 1559 1606 1744 1846 1871 1700 1654 1605 1658 1600 1542 1650 1695 1553 1297 1150 1076 1033 441 161 156 92 184 184
681 739 933 1123 1326 1389 1409 1484 1316 1223 1589 1686 1691 1514 1383 1434 1524 1460 1381 1496 1472 1392 1145 1062 1028 752 100 88 136 10 74 151
664 670 566 545 822 1176 1280 1341 1102 894 966 1094 1429 1107 1097 1126 1100 1361 1240 1089 1217 1182 969 838 710 312 48 40 51 12 94 151
727 678 537 395 715 864 856 1176 923 734 795 854 813 747 705 826 684 1008 1003 893 968 848 674 453 166 28 12 15 0 14 70 98
985 767 606 552 655 385 440 684 588 573 673 556 522 419 434 306 159 337 235 502 458 439 269 32 0 0 0 0 0 17 21 107
1285 975 850 738 693 349 400 469 403 505 530 404 416 360 228 80 18 13 0 0 170 140 8 0 0 0 0 0 0 4 5 46
1652 1305 1139 1074 922 562 471 454 417 368 330 410 416 330 348 107 1 0 0 0 0 0 1 0 0 0 0 0 0 0 16 13
1988 1670 1466 1304 1162 995 798 685 563 471 394 391 457 316 167 93 26 1 0 0 0 0 0 0 0 0 0 0 0 0 1 8
2177 1937 1610 1432 1160 1219 1067 869 880 789 645 448 451 227 44 46 51 20 6 0 0 0 0 0 0 0 0 0 0 15 8 14
1872 2104 1791 1507 1345 1328 1290 928 1027 838 659 636 483 341 124 17 16 10 0 0 0 0 0 0 0 0 0 0 0 11 15 9
1534 1832 1866 1674 1451 1300 1315 875 893 645 358 518 592 435 227 80 33 0 0 0 0 0 1 0 1 1 2 1 7 12 44 87
1191 1563 1631 1773 1549 1161 916 554 404 431 345 218 169 469 230 53 11 3 47 45 0 0 0 2 1 0 2 4 2 11 28 72
740 1266 1541 1795 1485 1013 860 903 397 281 289 173 48 130 300 93 29 3 6 53 33 6 0 1 1 1 12 14 1 4 32 25
368 1076 1566 1691 1549 1401 1088 823 321 339 133 96 120 49 98 71 41 18 10 10 12 45 11 3 6 3 3 10 0 1 27 5
117 1043 1673 1712 1672 1050 232 23 1 6 72 142 87 85 96 134 47 17 0 7 16 0 2 2 3 3 1 2 0 0 0 1
0 54 1420 1659 1565 1061 711 744 611 496 358 176 79 89 88 69 45 1 4 9 8 0 0 0 0 0 16 11 0 0 0 1
0 0 0 915 1150 1199 900 1005 872 88 36 25 119 75 69 88 11 0 0 0 0 0 0 0 0 1 7 0 0 0 0 0
0 0 0 0 15 867 871 870 597 72 69 57 54 53 30 53 2 0 0 0 0 0 0 0 1 6 9 0 0 0 0 0
0 0 0 0 0 19 750 874 278 163 126 151 55 36 51 72 11 0 0 0 0 0 0 3 4 6 0 0 0 0 0 0
0 0 0 0 0 0 391 677 344 237 67 126 48 58 61 32 30 0 0 0 0 0 0 3 7 2 0 0 0 0 0 0

GFSFLT2_con_sbcape_117.txt.gz
CAPE
850 1010 1232 1439 1582 1499 1203 1255 1401 1454 1605 1637 1782 1781 1707 1600 1628 1605 1719 1735 1655 1443 1167 1050 1024 982 430 368 219 348 189 242
737 866 1119 1229 1321 1212 1025 1083 1309 1385 1505 1538 1548 1517 1520 1474 1514 1445 1493 1554 1511 1325 1077 987 993 588 269 158 18 142 163 173
628 757 839 930 1175 1229 1145 1197 1215 1292 1397 1446 1264 995 1096 1272 1233 1317 1220 1345 1301 1148 960 892 601 37 61 64 16 17 82 146
515 621 620 579 1024 1127 1246 1267 972 775 1019 1013 935 741 666 829 941 1172 1028 1099 1058 960 809 610 178 4 16 40 14 0 81 136
536 554 453 604 875 841 740 952 813 465 480 556 646 506 487 407 371 625 586 665 516 492 337 64 12 0 0 0 0 0 8 97
682 647 550 536 490 580 652 681 639 789 542 410 574 411 238 113 54 90 55 48 79 24 37 0 0 0 0 0 0 0 0 61
837 660 558 557 467 365 369 512 535 547 575 454 544 554 456 14 0 0 0 0 70 3 0 0 0 0 0 0 0 0 0 10
1170 713 534 538 583 324 319 318 355 188 299 523 381 457 370 92 0 0 0 0 1 0 0 0 0 0 0 0 0 0 0 0
1641 1092 766 699 697 514 322 300 293 276 215 156 367 265 188 109 19 0 0 0 0 0 0 0 0 0 0 0 0 0 0 0
2142 1854 1295 1026 860 892 718 504 454 386 359 282 354 285 106 55 65 24 0 0 0 0 0 0 0 0 0 0 0 0 0 0
2045 2067 1775 1458 1160 1072 1005 800 760 693 608 536 346 350 146 38 52 17 0 0 0 1 1 0 1 0 0 0 0 0 0 3
1875 2059 1978 1700 1528 1030 985 641 832 683 677 679 504 498 236 90 27 0 0 1 4 1 1 1 0 0 2 3 1 8 12 21
1123 1602 1890 1736 1468 1136 1117 991 781 659 646 633 602 638 284 107 46 0 9 77 43 3 1 1 1 1 1 3 2 2 8 36
0 997 1572 1758 1678 1507 1416 1303 677 696 258 193 324 352 270 137 67 27 46 123 40 20 16 9 8 1 7 0 1 3 5 15
0 246 971 1548 1846 1535 272 108 58 102 146 270 190 120 141 190 87 43 39 82 63 53 37 29 10 10 1 0 1 1 5 6
0 0 96 1275 1525 1369 760 1056 901 800 677 577 247 117 98 93 65 32 35 56 51 48 15 0 15 9 7 0 0 0 5 1
0 0 0 0 49 1122 890 874 720 257 362 364 160 91 131 94 69 35 26 71 91 21 0 1 0 4 2 0 5 0 0 0
0 0 0 0 0 0 872 934 547 52 23 132 148 72 58 67 69 43 41 38 4 0 0 1 0 0 0 0 0 0 1 0
0 0 0 0 0 0 0 716 592 422 260 89 13 75 35 38 24 44 23 0 0 0 0 0 0 0 0 0 0 0 0 0
0 0 0 0 0 0 0 0 735 535 541 253 54 93 104 55 27 15 4 0 0 0 0 0 0 0 0 0 0 0 0 0

GFSFLT2_con_sbcape_120.txt.gz
CAPE
853 1100 1272 1378 1499 1484 1326 1232 1234 1295 1405 1544 1694 1661 1493 1439 1459 1583 1759 1837 1656 1277 1024 953 968 858 633 475 530 441 249 223
847 882 1035 1075 1243 1279 1216 1181 1211 1274 1296 1376 1401 1426 1361 1367 1334 1402 1524 1536 1429 1158 886 848 872 561 475 201 249 271 141 162
815 1014 1065 1146 1103 1127 1025 1116 1164 1206 1250 1222 1086 1068 1138 1218 1149 1228 1322 1333 1254 1019 815 742 526 324 217 22 0 31 67 86
813 950 911 957 992 1115 1084 1092 1175 1118 1178 1007 780 657 746 921 1019 1073 1116 1117 1051 859 714 441 37 16 11 14 0 0 0 51
782 761 674 738 945 907 982 959 913 615 771 778 654 419 510 591 615 740 601 815 550 442 281 69 15 1 1 0 0 0 0 35
617 686 673 797 920 829 656 813 882 701 405 407 750 543 303 204 279 327 229 159 82 1 66 5 0 0 0 0 0 0 0 0
541 637 675 685 599 615 535 587 846 810 582 389 803 786 470 88 56 65 39 0 0 1 0 0 0 0 0 0 0 0 0 0
471 622 503 475 467 432 397 424 505 508 623 611 757 671 421 148 19 6 1 1 117 28 0 0 0 0 0 0 0 0 0 0
642 633 460 457 470 291 260 306 295 161 243 450 409 561 416 195 85 5 0 0 0 0 0 0 0 0 0 0 0 0 0 0
1314 892 625 469 485 311 207 134 187 162 123 200 323 272 227 109 155 26 0 0 0 0 0 1 1 0 0 0 0 0 0 0
1970 1453 987 658 535 483 298 161 167 125 94 146 286 330 176 230 221 61 0 0 0 0 0 0 1 1 0 0 0 0 0 0
2063 2049 1696 1049 769 713 598 432 354 299 298 289 170 324 148 134 109 13 12 34 14 1 1 1 0 0 1 1 0 0 0 0
891 2032 2021 1599 1361 1023 990 902 793 687 524 462 313 341 199 107 93 12 35 81 43 0 1 1 1 0 1 2 1 0 4 5
0 425 1822 1729 1676 1446 1392 1237 1040 968 758 553 559 489 258 207 143 49 57 94 85 39 41 4 9 2 5 3 15 2 10 2
0 0 549 1743 1846 1591 485 330 178 475 348 503 573 610 387 321 161 99 80 134 174 98 69 46 22 0 7 18 6 4 3 11
0 0 0 216 1577 1516 1269 1397 1268 1111 968 751 574 550 548 379 187 83 105 118 200 128 96 81 30 0 2 0 0 0 2 1
0 0 0 0 0 1085 1002 1261 1052 371 470 523 642 168 225 269 130 56 82 87 116 97 98 81 57 39 0 2 5 0 0 0
0 0 0 0 0 0 102 896 524 414 308 472 342 102 65 72 77 55 47 58 82 110 69 39 15 17 0 1 3 16 5 0
0 0 0 0 0 0 0 0 67 368 377 491 250 163 117 66 58 69 59 62 80 64 35 12 2 11 0 0 0 0 0 0
0 0 0 0 0 0 0 0 3 29 566 247 279 203 165 128 38 95 82 51 12 1 0 0 0 0 0 0 0 0 0 0

GFSFLT2_con_sbcape_123.txt.gz
CAPE
1833 1908 1684 1410 1517 1501 1260 1173 1230 1389 1611 1761 1877 1788 1624 1618 1734 1789 1804 1723 1490 1159 955 861 894 759 529 565 545 519 1357 1472
1788 1905 1987 1997 1946 1318 1145 1123 1149 1257 1401 1561 1590 1437 1384 1269 1413 1630 1616 1626 1323 1035 792 788 788 556 310 334 372 271 1169 1088
1730 1820 1891 1975 1781 1721 1142 1079 1078 1138 1271 1319 1334 1787 1837 1538 1368 1391 1472 1403 1137 880 681 678 521 309 175 43 149 1132 1126 1089
1548 1786 1757 1747 1472 1503 1835 1803 1665 1634 1664 1762 1879 1924 1950 1669 1360 1116 1255 1197 988 766 592 222 352 954 885 65 853 924 1014 1085
1374 1560 1656 1465 1376 1333 1632 1624 1389 1504 1632 1902 1929 1789 1872 1869 2065 1642 1768 1084 1520 988 915 1051 466 334 1065 1096 795 632 867 953
1286 1384 1418 1383 1462 1271 1279 1232 1088 1083 1108 1290 1287 1453 1795 1916 1956 1944 1803 1614 1603 1330 1145 460 1008 724 793 930 860 788 669 730
1022 991 1114 1031 1307 1286 1150 1044 1076 1049 934 1090 1210 1265 1278 1562 1767 1665 1761 1718 1467 1229 885 1033 937 635 472 407 396 513 622 633
995 1080 1278 1170 1170 1235 995 1036 1117 1074 1049 1144 1329 1432 1138 1118 1317 1500 1258 1487 1297 1122 764 850 907 622 301 19 111 250 293 373
1048 1148 1274 1419 1345 1271 1000 887 853 878 909 1055 1272 1213 1228 951 798 1137 1278 1034 963 668 260 84 680 259 86 6 141 171 179 153
1435 1056 1182 1313 1506 1388 962 844 681 596 647 614 675 899 984 755 543 778 993 527 340 103 5 15 535 492 419 234 169 122 142 69
1964 1402 1290 1421 1473 1416 1275 947 551 383 459 439 465 695 794 534 539 524 621 656 319 48 4 25 1 3 319 302 131 63 117 41
2142 1995 1623 1484 1372 1335 1202 1060 1001 1001 800 881 719 493 542 692 658 519 448 339 334 224 158 21 25 22 5 25 24 40 70 148
1946 2221 1932 1609 1338 1492 1323 1220 1163 1051 915 944 986 1034 501 797 700 432 294 456 329 219 179 40 37 25 6 6 6 12 14 16
0 725 2410 1978 1767 1791 1691 1583 1402 1376 1110 969 1015 1068 1095 1050 772 515 332 472 369 251 100 54 49 34 73 41 19 22 16 104
0 0 0 2200 2365 2226 1836 1803 1525 1383 1243 980 850 995 1016 993 919 654 390 515 263 125 100 153 65 80 188 364 44 114 13 6
0 0 0 86 1498 2426 2009 1879 1778 1729 1357 1004 848 996 1197 1126 885 584 386 470 600 311 380 611 458 145 86 149 128 47 80 74
0 0 0 0 6 878 2163 2061 2412 2171 1838 1306 1032 890 1222 1026 728 552 552 497 419 319 316 644 437 347 126 66 65 8 19 60
1 0 0 0 0 0 0 1500 1985 1619 1890 1533 1127 1078 758 657 492 488 349 253 414 302 454 666 403 256 235 143 80 27 11 36
0 0 0 0 0 0 0 0 0 297 1743 1560 1197 949 539 514 372 247 350 311 300 330 299 698 527 401 386 335 200 267 202 54
1 1 1 0 0 0 0 0 2 2 3 321 1010 697 800 446 340 406 487 294 255 265 202 232 206 297 256 155 93 79 134 9

GFSFLT2_con_sbcape_129.txt.gz
CAPE
3378 2154 1771 1461 1537 1499 1487 1564 1658 1838 2010 2123 2233 2129 1924 1849 1855 1903 1990 1625 1567 1497 1135 999 1013 996 843 723 794 787 1303 1155
3427 2564 2139 1909 1763 1273 1196 1307 1449 1688 1861 1977 1989 1867 1763 1730 1712 1723 1833 1616 1532 1241 938 892 879 750 589 576 580 586 1355 1270
3417 2939 2550 2298 2170 1716 1060 1125 1254 1423 1662 1712 1780 1974 2083 2004 1664 1650 1732 1546 1271 1006 817 785 629 376 369 367 350 980 1243 1161
2960 3134 2853 2729 2336 2420 1892 1713 1594 1680 1789 2113 2040 1857 2051 1779 1487 1529 1593 1453 1045 817 726 610 526 1010 902 183 895 1181 753 897
2893 3091 3088 2999 2689 2515 2411 2174 1933 2004 2125 2340 2130 2171 2634 2216 2188 2032 2073 1341 1656 941 956 1128 1016 1231 936 945 915 1167 813 1028
2370 2726 3027 3504 2680 2324 2321 2522 2614 2376 2172 2942 2798 2471 2969 2513 2064 2362 2272 1838 1668 1350 1247 1174 1166 1282 1044 1333 1456 1362 659 940
0 2727 2992 3322 3473 2446 2554 2694 2330 2521 2577 2834 2764 2264 3002 2521 2587 2161 2048 1903 1792 1823 1477 1360 1499 1300 1118 1153 1318 1312 1122 776
0 1136 2920 2893 3072 3441 2964 2839 2396 2481 2397 2378 3218 2760 3149 2522 2462 2478 2324 2201 2153 2035 1678 1480 1620 1350 1238 1061 1201 1179 936 1189
0 910 2538 2920 3165 2983 2734 2216 2510 2596 2408 2537 2614 2851 3101 2687 2676 2520 2200 2468 2455 2193 1805 1902 1548 1412 1278 1263 943 836 752 849
0 0 2247 3218 2865 2696 2472 2285 2479 2125 2159 2293 1995 2538 2818 2823 2311 2549 2589 2414 2391 2361 2002 1886 1783 1422 1362 1256 989 1007 1013 897
0 0 3 3015 2938 2775 2812 2800 2541 2244 2158 2128 2321 2192 2567 2492 1950 2192 2959 2221 2453 2228 2012 1904 1490 1440 1415 1284 1109 1103 1117 660
0 0 0 2328 2980 2807 2587 2636 2506 2383 2045 1928 2530 2221 2174 2787 2111 2033 2105 2320 2089 1930 1705 1625 1627 1275 1099 1166 1122 1123 948 997
0 0 0 66 2556 2522 2702 2406 2439 2417 2190 1943 2261 2237 2179 2149 2100 1813 1660 1796 1812 1678 1418 1574 1510 1477 1470 1229 1552 1370 1131 928
1 0 0 0 1716 2591 2493 2586 2389 2371 2079 2021 1938 2173 2448 1839 1784 1981 1477 1324 1697 1445 1238 1318 1530 1444 1311 907 697 687 1059 975
3 4 0 0 119 2061 2268 2775 2476 2346 2064 1990 2234 2363 2172 1701 1563 2141 1602 1498 1842 1359 1300 1148 1153 1044 1175 850 550 262 95 880
5 9 11 4 21 133 2125 1935 2182 2040 1868 1909 1910 2355 2240 1974 1706 2021 2077 1919 1961 1898 1129 1056 982 813 1137 1416 1536 948 354 289
4 9 7 5 0 8 1832 1659 2234 1908 1848 1864 2341 2533 2421 2377 2139 2186 2527 2521 2235 2376 1274 1006 1067 1228 823 785 1246 1500 1104 748
10 5 4 8 0 4 223 1946 1342 909 909 1715 2322 2104 2077 2143 2235 2240 2534 2691 2175 1993 2026 871 1257 1260 1240 1063 1175 815 733 800
21 11 6 6 1 3 7 4 66 34 0 51 1494 1986 1923 1984 2017 1985 2120 2405 2179 1829 1934 1520 1261 1586 1028 1192 1083 740 710 783
14 26 21 5 5 4 9 6 9 10 2 3 7 158 573 1926 2283 1872 1505 1095 1110 1246 1691 1584 1499 1606 1381 913 1306 1349 1003 642

GFSFLT2_con_sbcape_132.txt.gz
CAPE
2678 1930 1576 1438 1605 1740 1821 1843 1900 1969 2077 2205 2286 2187 1987 1850 1881 1976 2082 1772 1714 1472 1105 950 953 975 876 773 709 674 661 872
3148 2415 1993 1824 1706 1386 1538 1655 1735 1849 1951 2040 2067 1999 1830 1761 1753 1824 1905 1569 1508 1320 954 847 839 770 675 666 579 542 426 813
2844 2396 2356 2189 1911 1550 1127 1345 1488 1638 1789 1835 1581 2045 1852 1733 1742 1609 1720 1493 1366 1026 808 766 638 529 527 521 420 578 749 867
3325 2873 2503 2424 1957 1946 1631 1557 1616 1842 2016 1923 2120 1991 1967 1768 1602 1383 1641 1447 1098 813 701 636 428 635 343 261 327 522 457 618
3132 3298 2854 2475 2351 2388 1724 1691 1499 1619 1854 2110 2136 1923 1970 1396 1607 1474 1590 1215 1094 637 516 688 803 886 786 603 620 750 624 871
0 3452 2946 2883 2486 2678 2447 1972 1843 1785 1869 2239 1996 2156 2251 1793 2036 1908 1988 1571 1713 979 900 873 1040 994 699 676 749 473 521 817
0 322 3034 2790 2831 2894 2640 2265 2241 2097 2065 2140 2299 2038 2190 2170 2004 2080 1819 1774 1456 1333 1168 1033 1099 1149 1048 1057 1013 611 794 664
0 0 610 2737 2391 2784 2630 2620 2529 2261 2231 2271 2409 2127 2146 2333 2262 2048 1864 1712 1572 1546 1350 1171 1192 938 1023 1062 1109 775 554 622
0 0 0 2861 2592 2253 2364 2372 1909 2392 2350 2663 2387 2350 2363 2347 2279 2169 2047 1794 1803 1692 1717 1249 1190 1213 1100 984 1036 955 939 554
0 0 0 0 2712 2288 2086 2198 2090 2245 2220 2199 2455 2471 2412 2465 2300 2046 2170 2148 1939 1632 1390 1233 1181 1170 940 1014 782 656 803 730
0 0 0 0 0 1383 2081 2058 2257 1960 2363 2115 2165 2118 2445 2537 2085 2265 2085 2176 2131 1956 1698 1447 1365 1252 1012 1108 730 783 835 740
0 0 0 0 0 0 1565 2023 2128 2174 1868 1972 2207 1959 1778 2180 2212 2207 2470 2059 2049 2079 1985 1922 1507 1196 1068 944 890 824 901 852
0 0 0 0 0 0 100 1508 1588 1608 1613 1864 2066 1895 1684 1807 2305 1871 1646 2140 2014 1994 1936 1538 1374 1302 1148 1095 1006 835 676 723
0 0 0 0 0 0 3 198 1347 1539 1696 1591 1704 2157 1734 1682 2184 1739 1468 1334 1683 1469 1421 1253 1102 1296 1106 894 731 764 823 759
12 0 3 1 0 1 9 9 563 1335 1567 1471 1609 1897 2033 1707 1695 1754 1278 1138 1029 1264 1222 1086 965 938 1249 674 444 266 246 638
5 6 5 3 1 14 15 15 16 1039 1396 1468 1350 1421 1844 1731 1397 1311 1538 983 807 977 1220 1044 867 702 1002 1026 781 953 444 399
6 3 9 7 6 9 26 9 18 748 1221 1294 1343 1228 1393 1754 1268 1214 1676 1104 901 1392 1293 1109 1012 706 661 624 646 706 955 683
3 6 13 0 0 10 9 1 8 661 324 938 1136 1414 1562 1695 1383 1317 1376 1670 1400 1131 1353 1169 883 775 670 447 543 603 665 745
8 5 16 4 1 8 5 0 2 6 3 1 6 4 206 379 1446 1618 1579 1814 2009 1822 1495 1169 996 737 772 637 511 653 706 570
5 5 14 9 2 7 6 2 5 4 4 4 0 7 3 0 6 944 1424 1689 1845 1813 1479 1367 1034 752 947 795 840 782 516 347